Observation data for Romero 11SSW on 02/24/2019      Previous  Date  Next       Current Mesonet Observations  Soil Data  Daily Summary Page  Observations in Plain Language
KBR1 240600Z 33002KT M05/M09 A302 RMK A01 T10481092  RH  072%=      5-min Rain = 0
KBR1 240601Z 35002KT M05/M09 A302 RMK A01 T10481092  RH  071%=      5-min Rain = 0
KBR1 240602Z 36002KT M05/M09 A302 RMK A01 T10471092  RH  071%=      5-min Rain = 0
KBR1 240603Z 00002KT M05/M09 A302 RMK A01 T10471092  RH  071%=      5-min Rain = 0
KBR1 240604Z 00002KT M05/M09 A302 RMK A01 T10471093  RH  070%=      5-min Rain = 0
KBR1 240605Z 35002KT M05/M09 A302 RMK A01 T10471093  RH  070%=      5-min Rain = 0
KBR1 240606Z 33002KT M05/M09 A302 RMK A01 T10471093  RH  070%=      5-min Rain = 0
KBR1 240607Z 32003KT M05/M09 A302 RMK A01 T10471093  RH  070%=      5-min Rain = 0
KBR1 240608Z 32003KT M05/M09 A302 RMK A01 T10461093  RH  070%=      5-min Rain = 0
KBR1 240609Z 32003KT M05/M09 A302 RMK A01 T10461093  RH  070%=      5-min Rain = 0
KBR1 240610Z 32002KT M05/M09 A302 RMK A01 T10461093  RH  069%=      5-min Rain = 0
KBR1 240611Z 34002KT M05/M09 A302 RMK A01 T10451093  RH  069%=      5-min Rain = 0
KBR1 240612Z 00001KT M05/M09 A302 RMK A01 T10461092  RH  070%=      5-min Rain = 0
KBR1 240613Z 34002KT M05/M09 A302 RMK A01 T10481092  RH  071%=      5-min Rain = 0
KBR1 240614Z 33002KT M05/M09 A302 RMK A01 T10511094  RH  072%=      5-min Rain = 0
KBR1 240615Z 33002KT M05/M09 A302 RMK A01 T10521093  RH  073%=      5-min Rain = 0
KBR1 240616Z 33002KT M05/M09 A302 RMK A01 T10541094  RH  074%=      5-min Rain = 0
KBR1 240617Z 33002KT M06/M09 A302 RMK A01 T10551094  RH  074%=      5-min Rain = 0
KBR1 240618Z 33003KT M05/M09 A302 RMK A01 T10541093  RH  074%=      5-min Rain = 0
KBR1 240619Z 33003KT M05/M09 A302 RMK A01 T10521092  RH  073%=      5-min Rain = 0
KBR1 240620Z 33003KT M05/M09 A302 RMK A01 T10491092  RH  072%=      5-min Rain = 0
KBR1 240621Z 32002KT M05/M09 A302 RMK A01 T10481092  RH  071%=      5-min Rain = 0
KBR1 240622Z 31002KT M05/M09 A302 RMK A01 T10471093  RH  070%=      5-min Rain = 0
KBR1 240623Z 31002KT M05/M09 A302 RMK A01 T10451092  RH  070%=      5-min Rain = 0
KBR1 240624Z 32002KT M04/M09 A302 RMK A01 T10441092  RH  069%=      5-min Rain = 0
KBR1 240625Z 33002KT M04/M09 A302 RMK A01 T10421092  RH  068%=      5-min Rain = 0
KBR1 240626Z 33001KT M04/M09 A302 RMK A01 T10411092  RH  067%=      5-min Rain = 0
KBR1 240627Z 33001KT M04/M09 A302 RMK A01 T10401093  RH  067%=      5-min Rain = 0
KBR1 240628Z 33002KT M04/M09 A302 RMK A01 T10391093  RH  066%=      5-min Rain = 0
KBR1 240629Z 34002KT M04/M09 A302 RMK A01 T10391093  RH  066%=      5-min Rain = 0
KBR1 240630Z 34002KT M04/M09 A302 RMK A01 T10391093  RH  066%=      5-min Rain = 0
KBR1 240631Z 34002KT M04/M09 A302 RMK A01 T10401094  RH  066%=      5-min Rain = 0
KBR1 240632Z 34003KT M04/M09 A302 RMK A01 T10401094  RH  066%=      5-min Rain = 0
KBR1 240633Z 33003KT M04/M09 A302 RMK A01 T10401094  RH  066%=      5-min Rain = 0
KBR1 240634Z 33003KT M04/M10 A302 RMK A01 T10411095  RH  066%=      5-min Rain = 0
KBR1 240635Z 33002KT M04/M10 A302 RMK A01 T10421095  RH  066%=      5-min Rain = 0
KBR1 240636Z 33002KT M04/M10 A302 RMK A01 T10431096  RH  067%=      5-min Rain = 0
KBR1 240637Z 33003KT M04/M10 A302 RMK A01 T10431096  RH  067%=      5-min Rain = 0
KBR1 240638Z 33003KT M04/M10 A302 RMK A01 T10431095  RH  067%=      5-min Rain = 0
KBR1 240639Z 32002KT M04/M10 A302 RMK A01 T10431095  RH  067%=      5-min Rain = 0
KBR1 240640Z 32002KT M04/M10 A302 RMK A01 T10421095  RH  067%=      5-min Rain = 0
KBR1 240641Z 32002KT M04/M10 A302 RMK A01 T10421095  RH  066%=      5-min Rain = 0
KBR1 240642Z 32002KT M04/M10 A302 RMK A01 T10411095  RH  066%=      5-min Rain = 0
KBR1 240643Z 32001KT M04/M10 A302 RMK A01 T10401095  RH  065%=      5-min Rain = 0
KBR1 240644Z 32001KT M04/M10 A302 RMK A01 T10391095  RH  065%=      5-min Rain = 0
KBR1 240645Z 32002KT M04/M10 A3021 RMK A01 T10381095  RH  064%=      5-min Rain = 0
KBR1 240646Z 33003KT M04/M10 A3021 RMK A01 T10371096  RH  064%=      5-min Rain = 0
KBR1 240647Z 33002KT M04/M10 A3021 RMK A01 T10371096  RH  064%=      5-min Rain = 0
KBR1 240648Z 33002KT M04/M10 A3021 RMK A01 T10371096  RH  063%=      5-min Rain = 0
KBR1 240649Z 32001KT M04/M10 A3021 RMK A01 T10371096  RH  064%=      5-min Rain = 0
KBR1 240650Z 32001KT M04/M10 A3021 RMK A01 T10371096  RH  063%=      5-min Rain = 0
KBR1 240651Z 33001KT M04/M10 A3021 RMK A01 T10361096  RH  063%=      5-min Rain = 0
KBR1 240652Z 33001KT M04/M10 A3021 RMK A01 T10361097  RH  063%=      5-min Rain = 0
KBR1 240653Z 34002KT M04/M10 A3021 RMK A01 T10361097  RH  063%=      5-min Rain = 0
KBR1 240654Z 34002KT M04/M10 A3021 RMK A01 T10361097  RH  062%=      5-min Rain = 0
KBR1 240655Z 33002KT M04/M10 A3021 RMK A01 T10361097  RH  062%=      5-min Rain = 0
KBR1 240656Z 33002KT M04/M10 A3021 RMK A01 T10361098  RH  062%=      5-min Rain = 0
KBR1 240657Z 33002KT M04/M10 A3021 RMK A01 T10381099  RH  063%=      5-min Rain = 0
KBR1 240658Z 32002KT M04/M10 A3021 RMK A01 T10401099  RH  063%=      5-min Rain = 0
KBR1 240659Z 32002KT M04/M10 A3021 RMK A01 T10411099  RH  064%=      5-min Rain = 0
KBR1 240700Z 32002KT M04/M10 A3021 RMK A01 T10401099  RH  064%=      5-min Rain = 0
KBR1 240701Z 32002KT M04/M10 A3021 RMK A01 T10391099  RH  064%=      5-min Rain = 0
KBR1 240702Z 32002KT M04/M10 A3021 RMK A01 T10391099  RH  063%=      5-min Rain = 0
KBR1 240703Z 31002KT M04/M10 A3021 RMK A01 T10381099  RH  063%=      5-min Rain = 0
KBR1 240704Z 31002KT M04/M10 A3021 RMK A01 T10381099  RH  063%=      5-min Rain = 0
KBR1 240705Z 31002KT M04/M10 A3021 RMK A01 T10371098  RH  063%=      5-min Rain = 0
KBR1 240706Z 31002KT M04/M10 A3021 RMK A01 T10371099  RH  062%=      5-min Rain = 0
KBR1 240707Z 31002KT M04/M10 A3021 RMK A01 T10371099  RH  062%=      5-min Rain = 0
KBR1 240708Z 33001KT M04/M10 A3021 RMK A01 T10371099  RH  062%=      5-min Rain = 0
KBR1 240709Z 34001KT M04/M10 A3021 RMK A01 T10371100  RH  061%=      5-min Rain = 0
KBR1 240710Z 34001KT M04/M10 A3021 RMK A01 T10371101  RH  061%=      5-min Rain = 0
KBR1 240711Z 34001KT M04/M10 A3021 RMK A01 T10401102  RH  062%=      5-min Rain = 0
KBR1 240712Z 34001KT M04/M10 A3021 RMK A01 T10411102  RH  063%=      5-min Rain = 0
KBR1 240713Z 34001KT M04/M10 A3021 RMK A01 T10411102  RH  063%=      5-min Rain = 0
KBR1 240714Z 32002KT M04/M10 A3021 RMK A01 T10401101  RH  063%=      5-min Rain = 0
KBR1 240715Z 32002KT M04/M10 A3021 RMK A01 T10381100  RH  062%=      5-min Rain = 0
KBR1 240716Z 32001KT M04/M10 A3021 RMK A01 T10371100  RH  061%=      5-min Rain = 0
KBR1 240717Z 31001KT M04/M10 A3021 RMK A01 T10371101  RH  061%=      5-min Rain = 0
KBR1 240718Z 31001KT M04/M10 A3021 RMK A01 T10361101  RH  061%=      5-min Rain = 0
KBR1 240719Z 31001KT M04/M10 A3022 RMK A01 T10351101  RH  061%=      5-min Rain = 0
KBR1 240720Z 31001KT M04/M10 A3022 RMK A01 T10351100  RH  061%=      5-min Rain = 0
KBR1 240721Z 31001KT M03/M10 A3022 RMK A01 T10341100  RH  060%=      5-min Rain = 0
KBR1 240722Z 31001KT M03/M10 A3022 RMK A01 T10341100  RH  060%=      5-min Rain = 0
KBR1 240723Z 31001KT M03/M10 A3022 RMK A01 T10341101  RH  060%=      5-min Rain = 0
KBR1 240724Z 31001KT M03/M10 A3022 RMK A01 T10341101  RH  060%=      5-min Rain = 0
KBR1 240725Z 31001KT M03/M10 A3022 RMK A01 T10341100  RH  060%=      5-min Rain = 0
KBR1 240726Z 31002KT M04/M10 A3022 RMK A01 T10351101  RH  060%=      5-min Rain = 0
KBR1 240727Z 31001KT M04/M10 A3022 RMK A01 T10351101  RH  060%=      5-min Rain = 0
KBR1 240728Z 31001KT M04/M10 A3022 RMK A01 T10361101  RH  061%=      5-min Rain = 0
KBR1 240729Z 31000KT M04/M10 A3022 RMK A01 T10361101  RH  061%=      5-min Rain = 0
KBR1 240730Z 00000KT M04/M10 A3022 RMK A01 T10361100  RH  061%=      5-min Rain = 0
KBR1 240731Z 00000KT M04/M10 A3022 RMK A01 T10351100  RH  061%=      5-min Rain = 0
KBR1 240732Z 00000KT M04/M10 A3022 RMK A01 T10351100  RH  061%=      5-min Rain = 0
KBR1 240733Z 31000KT M04/M10 A3022 RMK A01 T10351100  RH  061%=      5-min Rain = 0
KBR1 240734Z 30001KT M03/M10 A3022 RMK A01 T10341100  RH  061%=      5-min Rain = 0
KBR1 240735Z 29001KT M04/M10 A3022 RMK A01 T10351100  RH  061%=      5-min Rain = 0
KBR1 240736Z 29001KT M04/M10 A3022 RMK A01 T10351100  RH  061%=      5-min Rain = 0
KBR1 240737Z 30002KT M04/M10 A3022 RMK A01 T10361101  RH  061%=      5-min Rain = 0
KBR1 240738Z 31002KT M04/M10 A3022 RMK A01 T10351101  RH  060%=      5-min Rain = 0
KBR1 240739Z 31002KT M04/M10 A3022 RMK A01 T10361102  RH  060%=      5-min Rain = 0
KBR1 240740Z 31001KT M04/M10 A3022 RMK A01 T10381103  RH  061%=      5-min Rain = 0
KBR1 240741Z 31000KT M04/M10 A3022 RMK A01 T10381102  RH  061%=      5-min Rain = 0
KBR1 240742Z 00000KT M04/M10 A3022 RMK A01 T10381102  RH  061%=      5-min Rain = 0
KBR1 240743Z 31000KT M04/M10 A3022 RMK A01 T10381102  RH  061%=      5-min Rain = 0
KBR1 240744Z 31001KT M04/M10 A3022 RMK A01 T10371101  RH  061%=      5-min Rain = 0
KBR1 240745Z 31001KT M04/M10 A3022 RMK A01 T10361102  RH  060%=      5-min Rain = 0
KBR1 240746Z 32002KT M04/M10 A3022 RMK A01 T10361103  RH  060%=      5-min Rain = 0
KBR1 240747Z 32002KT M04/M10 A3022 RMK A01 T10361103  RH  060%=      5-min Rain = 0
KBR1 240748Z 31002KT M04/M10 A3023 RMK A01 T10361103  RH  060%=      5-min Rain = 0
KBR1 240749Z 31002KT M04/M10 A3023 RMK A01 T10361103  RH  060%=      5-min Rain = 0
KBR1 240750Z 32002KT M04/M10 A3023 RMK A01 T10361103  RH  060%=      5-min Rain = 0
KBR1 240751Z 32002KT M04/M10 A3023 RMK A01 T10361103  RH  060%=      5-min Rain = 0
KBR1 240752Z 32002KT M04/M10 A3023 RMK A01 T10361103  RH  060%=      5-min Rain = 0
KBR1 240753Z 31003KT M04/M10 A3023 RMK A01 T10371102  RH  061%=      5-min Rain = 0
KBR1 240754Z 31003KT M04/M10 A3023 RMK A01 T10381102  RH  061%=      5-min Rain = 0
KBR1 240755Z 31002KT M04/M10 A3023 RMK A01 T10391102  RH  062%=      5-min Rain = 0
KBR1 240756Z 31002KT M04/M10 A3023 RMK A01 T10401102  RH  062%=      5-min Rain = 0
KBR1 240757Z 31002KT M04/M10 A3023 RMK A01 T10411101  RH  063%=      5-min Rain = 0
KBR1 240758Z 31001KT M04/M10 A3023 RMK A01 T10411101  RH  063%=      5-min Rain = 0
KBR1 240759Z 31002KT M04/M10 A3023 RMK A01 T10411100  RH  063%=      5-min Rain = 0
KBR1 240800Z 32002KT M04/M10 A3023 RMK A01 T10411100  RH  064%=      5-min Rain = 0
KBR1 240801Z 32002KT M04/M10 A3023 RMK A01 T10421100  RH  064%=      5-min Rain = 0
KBR1 240802Z 32002KT M04/M10 A3023 RMK A01 T10421100  RH  064%=      5-min Rain = 0
KBR1 240803Z 32001KT M04/M10 A3023 RMK A01 T10421100  RH  064%=      5-min Rain = 0
KBR1 240804Z 31002KT M04/M10 A3023 RMK A01 T10421099  RH  064%=      5-min Rain = 0
KBR1 240805Z 31002KT M04/M10 A3023 RMK A01 T10421099  RH  064%=      5-min Rain = 0
KBR1 240806Z 31003KT M04/M10 A3023 RMK A01 T10411099  RH  064%=      5-min Rain = 0
KBR1 240807Z 32003KT M04/M10 A3023 RMK A01 T10411100  RH  064%=      5-min Rain = 0
KBR1 240808Z 32003KT M04/M10 A3023 RMK A01 T10411100  RH  063%=      5-min Rain = 0
KBR1 240809Z 32003KT M04/M10 A3023 RMK A01 T10421101  RH  063%=      5-min Rain = 0
KBR1 240810Z 32002KT M04/M10 A3023 RMK A01 T10421101  RH  064%=      5-min Rain = 0
KBR1 240811Z 32002KT M04/M10 A3023 RMK A01 T10431101  RH  064%=      5-min Rain = 0
KBR1 240812Z 32002KT M04/M10 A3023 RMK A01 T10431101  RH  064%=      5-min Rain = 0
KBR1 240813Z 32003KT M04/M10 A3023 RMK A01 T10411100  RH  064%=      5-min Rain = 0
KBR1 240814Z 33003KT M04/M10 A3023 RMK A01 T10401100  RH  063%=      5-min Rain = 0
KBR1 240815Z 33003KT M04/M10 A3023 RMK A01 T10401100  RH  063%=      5-min Rain = 0
KBR1 240816Z 33003KT M04/M10 A3023 RMK A01 T10401100  RH  063%=      5-min Rain = 0
KBR1 240817Z 32003KT M04/M10 A3023 RMK A01 T10401100  RH  063%=      5-min Rain = 0
KBR1 240818Z 31003KT M04/M10 A3023 RMK A01 T10411100  RH  063%=      5-min Rain = 0
KBR1 240819Z 31003KT M04/M10 A3023 RMK A01 T10411101  RH  063%=      5-min Rain = 0
KBR1 240820Z 32003KT M04/M10 A3023 RMK A01 T10411101  RH  063%=      5-min Rain = 0
KBR1 240821Z 32003KT M04/M10 A3023 RMK A01 T10401100  RH  063%=      5-min Rain = 0
KBR1 240822Z 32003KT M04/M10 A3023 RMK A01 T10411101  RH  063%=      5-min Rain = 0
KBR1 240823Z 32003KT M04/M10 A3023 RMK A01 T10411101  RH  063%=      5-min Rain = 0
KBR1 240824Z 32003KT M04/M10 A3023 RMK A01 T10421101  RH  063%=      5-min Rain = 0
KBR1 240825Z 31003KT M04/M10 A3023 RMK A01 T10431101  RH  064%=      5-min Rain = 0
KBR1 240826Z 31004KT M04/M10 A3023 RMK A01 T10431101  RH  064%=      5-min Rain = 0
KBR1 240827Z 32004KT M04/M10 A3023 RMK A01 T10431101  RH  064%=      5-min Rain = 0
KBR1 240828Z 32003KT M04/M10 A3023 RMK A01 T10431101  RH  064%=      5-min Rain = 0
KBR1 240829Z 32003KT M04/M10 A3023 RMK A01 T10431102  RH  064%=      5-min Rain = 0
KBR1 240830Z 31003KT M04/M10 A3023 RMK A01 T10431102  RH  064%=      5-min Rain = 0
KBR1 240831Z 31003KT M04/M10 A3023 RMK A01 T10431102  RH  063%=      5-min Rain = 0
KBR1 240832Z 30003KT M04/M10 A3023 RMK A01 T10431102  RH  063%=      5-min Rain = 0
KBR1 240833Z 30004KT M04/M10 A3023 RMK A01 T10431102  RH  063%=      5-min Rain = 0
KBR1 240834Z 30004KT M04/M10 A3023 RMK A01 T10431102  RH  063%=      5-min Rain = 0
KBR1 240835Z 31004KT M04/M10 A3023 RMK A01 T10421102  RH  063%=      5-min Rain = 0
KBR1 240836Z 32004KT M04/M10 A3023 RMK A01 T10411101  RH  063%=      5-min Rain = 0
KBR1 240837Z 32004KT M04/M10 A3023 RMK A01 T10411101  RH  063%=      5-min Rain = 0
KBR1 240838Z 32003KT M04/M10 A3023 RMK A01 T10431102  RH  063%=      5-min Rain = 0
KBR1 240839Z 32003KT M04/M10 A3023 RMK A01 T10441102  RH  064%=      5-min Rain = 0
KBR1 240840Z 32003KT M05/M10 A3023 RMK A01 T10461103  RH  064%=      5-min Rain = 0
KBR1 240841Z 32003KT M05/M10 A3023 RMK A01 T10471103  RH  065%=      5-min Rain = 0
KBR1 240842Z 31003KT M05/M10 A3023 RMK A01 T10481103  RH  065%=      5-min Rain = 0
KBR1 240843Z 32003KT M05/M10 A3023 RMK A01 T10481102  RH  066%=      5-min Rain = 0
KBR1 240844Z 32004KT M05/M10 A3023 RMK A01 T10481102  RH  066%=      5-min Rain = 0
KBR1 240845Z 32004KT M05/M10 A3023 RMK A01 T10491102  RH  066%=      5-min Rain = 0
KBR1 240846Z 32004KT M05/M10 A3023 RMK A01 T10491101  RH  067%=      5-min Rain = 0
KBR1 240847Z 32004KT M05/M10 A3023 RMK A01 T10491102  RH  067%=      5-min Rain = 0
KBR1 240848Z 32004KT M05/M10 A3023 RMK A01 T10491102  RH  067%=      5-min Rain = 0
KBR1 240849Z 32004KT M05/M10 A3023 RMK A01 T10491102  RH  067%=      5-min Rain = 0
KBR1 240850Z 33004KT M05/M10 A3023 RMK A01 T10491102  RH  067%=      5-min Rain = 0
KBR1 240851Z 33004KT M05/M10 A3023 RMK A01 T10491102  RH  067%=      5-min Rain = 0
KBR1 240852Z 33004KT M05/M10 A3023 RMK A01 T10491102  RH  066%=      5-min Rain = 0
KBR1 240853Z 32003KT M05/M10 A3023 RMK A01 T10491102  RH  066%=      5-min Rain = 0
KBR1 240854Z 32003KT M05/M10 A3023 RMK A01 T10481102  RH  066%=      5-min Rain = 0
KBR1 240855Z 32003KT M05/M10 A3023 RMK A01 T10481102  RH  066%=      5-min Rain = 0
KBR1 240856Z 32003KT M05/M10 A3023 RMK A01 T10481102  RH  066%=      5-min Rain = 0
KBR1 240857Z 32003KT M05/M10 A3023 RMK A01 T10481102  RH  066%=      5-min Rain = 0
KBR1 240858Z 32003KT M05/M10 A3023 RMK A01 T10471101  RH  066%=      5-min Rain = 0
KBR1 240859Z 33002KT M05/M10 A3023 RMK A01 T10461101  RH  065%=      5-min Rain = 0
KBR1 240900Z 33002KT M05/M10 A3023 RMK A01 T10451102  RH  064%=      5-min Rain = 0
KBR1 240901Z 32002KT M04/M10 A3023 RMK A01 T10431102  RH  064%=      5-min Rain = 0
KBR1 240902Z 32003KT M04/M10 A3023 RMK A01 T10431102  RH  063%=      5-min Rain = 0
KBR1 240903Z 31003KT M04/M10 A3023 RMK A01 T10421102  RH  063%=      5-min Rain = 0
KBR1 240904Z 31003KT M04/M10 A3023 RMK A01 T10421102  RH  063%=      5-min Rain = 0
KBR1 240905Z 31004KT M04/M10 A3023 RMK A01 T10421103  RH  062%=      5-min Rain = 0
KBR1 240906Z 31004KT M04/M10 A3023 RMK A01 T10421102  RH  063%=      5-min Rain = 0
KBR1 240907Z 31003KT M04/M10 A3023 RMK A01 T10421103  RH  063%=      5-min Rain = 0
KBR1 240908Z 31003KT M04/M10 A3023 RMK A01 T10411102  RH  062%=      5-min Rain = 0
KBR1 240909Z 31004KT M04/M10 A3023 RMK A01 T10411103  RH  062%=      5-min Rain = 0
KBR1 240910Z 32004KT M04/M10 A3023 RMK A01 T10421104  RH  062%=      5-min Rain = 0
KBR1 240911Z 32004KT M04/M10 A3023 RMK A01 T10421104  RH  062%=      5-min Rain = 0
KBR1 240912Z 32004KT M04/M10 A3023 RMK A01 T10421104  RH  062%=      5-min Rain = 0
KBR1 240913Z 32003KT M04/M10 A3023 RMK A01 T10431104  RH  062%=      5-min Rain = 0
KBR1 240914Z 32003KT M04/M10 A3023 RMK A01 T10431104  RH  062%=      5-min Rain = 0
KBR1 240915Z 31003KT M04/M10 A3023 RMK A01 T10431104  RH  063%=      5-min Rain = 0
KBR1 240916Z 31003KT M04/M10 A3023 RMK A01 T10431104  RH  062%=      5-min Rain = 0
KBR1 240917Z 32003KT M04/M10 A3023 RMK A01 T10431104  RH  062%=      5-min Rain = 0
KBR1 240918Z 32003KT M04/M11 A3023 RMK A01 T10431105  RH  062%=      5-min Rain = 0
KBR1 240919Z 32003KT M04/M11 A3023 RMK A01 T10431105  RH  062%=      5-min Rain = 0
KBR1 240920Z 32003KT M04/M11 A3023 RMK A01 T10431105  RH  062%=      5-min Rain = 0
KBR1 240921Z 32003KT M04/M10 A3023 RMK A01 T10421104  RH  062%=      5-min Rain = 0
KBR1 240922Z 32003KT M04/M11 A3023 RMK A01 T10421105  RH  062%=      5-min Rain = 0
KBR1 240923Z 32003KT M04/M11 A3023 RMK A01 T10421105  RH  062%=      5-min Rain = 0
KBR1 240924Z 32003KT M04/M11 A3023 RMK A01 T10421105  RH  062%=      5-min Rain = 0
KBR1 240925Z 32003KT M04/M11 A3023 RMK A01 T10431105  RH  062%=      5-min Rain = 0
KBR1 240926Z 32003KT M04/M11 A3023 RMK A01 T10431105  RH  062%=      5-min Rain = 0
KBR1 240927Z 32003KT M04/M11 A3023 RMK A01 T10431106  RH  061%=      5-min Rain = 0
KBR1 240928Z 32003KT M04/M11 A3023 RMK A01 T10421106  RH  061%=      5-min Rain = 0
KBR1 240929Z 32003KT M04/M11 A3023 RMK A01 T10421106  RH  061%=      5-min Rain = 0
KBR1 240930Z 32003KT M04/M11 A3023 RMK A01 T10421106  RH  061%=      5-min Rain = 0
KBR1 240931Z 31003KT M04/M11 A3023 RMK A01 T10421106  RH  061%=      5-min Rain = 0
KBR1 240932Z 31003KT M04/M11 A3023 RMK A01 T10421106  RH  061%=      5-min Rain = 0
KBR1 240933Z 31003KT M04/M11 A3023 RMK A01 T10421106  RH  061%=      5-min Rain = 0
KBR1 240934Z 31003KT M04/M11 A3023 RMK A01 T10421106  RH  061%=      5-min Rain = 0
KBR1 240935Z 32003KT M04/M11 A3023 RMK A01 T10431106  RH  061%=      5-min Rain = 0
KBR1 240936Z 32003KT M04/M11 A3024 RMK A01 T10431106  RH  062%=      5-min Rain = 0
KBR1 240937Z 32003KT M04/M11 A3024 RMK A01 T10431106  RH  062%=      5-min Rain = 0
KBR1 240938Z 33003KT M04/M11 A3024 RMK A01 T10431106  RH  062%=      5-min Rain = 0
KBR1 240939Z 33003KT M04/M11 A3024 RMK A01 T10441106  RH  062%=      5-min Rain = 0
KBR1 240940Z 33003KT M04/M11 A3024 RMK A01 T10441106  RH  062%=      5-min Rain = 0
KBR1 240941Z 33003KT M05/M11 A3024 RMK A01 T10451107  RH  062%=      5-min Rain = 0
KBR1 240942Z 33003KT M05/M11 A3024 RMK A01 T10461107  RH  062%=      5-min Rain = 0
KBR1 240943Z 32003KT M05/M11 A3024 RMK A01 T10461107  RH  062%=      5-min Rain = 0
KBR1 240944Z 32003KT M05/M11 A3024 RMK A01 T10461107  RH  063%=      5-min Rain = 0
KBR1 240945Z 32003KT M05/M11 A3024 RMK A01 T10471107  RH  063%=      5-min Rain = 0
KBR1 240946Z 32003KT M05/M11 A3024 RMK A01 T10471107  RH  063%=      5-min Rain = 0
KBR1 240947Z 31003KT M05/M11 A3024 RMK A01 T10481107  RH  063%=      5-min Rain = 0
KBR1 240948Z 31003KT M05/M11 A3024 RMK A01 T10481107  RH  063%=      5-min Rain = 0
KBR1 240949Z 30003KT M05/M11 A3024 RMK A01 T10481107  RH  064%=      5-min Rain = 0
KBR1 240950Z 31003KT M05/M11 A3024 RMK A01 T10491107  RH  064%=      5-min Rain = 0
KBR1 240951Z 31003KT M05/M11 A3024 RMK A01 T10491107  RH  064%=      5-min Rain = 0
KBR1 240952Z 31003KT M05/M11 A3024 RMK A01 T10501107  RH  064%=      5-min Rain = 0
KBR1 240953Z 32003KT M05/M11 A3024 RMK A01 T10501106  RH  064%=      5-min Rain = 0
KBR1 240954Z 32003KT M05/M11 A3024 RMK A01 T10501106  RH  064%=      5-min Rain = 0
KBR1 240955Z 32003KT M05/M11 A3024 RMK A01 T10501106  RH  065%=      5-min Rain = 0
KBR1 240956Z 33003KT M05/M11 A3024 RMK A01 T10501107  RH  065%=      5-min Rain = 0
KBR1 240957Z 33003KT M05/M11 A3024 RMK A01 T10511107  RH  065%=      5-min Rain = 0
KBR1 240958Z 32003KT M05/M11 A3024 RMK A01 T10511107  RH  065%=      5-min Rain = 0
KBR1 240959Z 32004KT M05/M11 A3024 RMK A01 T10511107  RH  065%=      5-min Rain = 0
KBR1 241000Z 32003KT M05/M11 A3024 RMK A01 T10511108  RH  064%=      5-min Rain = 0
KBR1 241001Z 32003KT M05/M11 A3024 RMK A01 T10511108  RH  064%=      5-min Rain = 0
KBR1 241002Z 32004KT M05/M11 A3024 RMK A01 T10511108  RH  064%=      5-min Rain = 0
KBR1 241003Z 32003KT M05/M11 A3024 RMK A01 T10511108  RH  065%=      5-min Rain = 0
KBR1 241004Z 31003KT M05/M11 A3024 RMK A01 T10511107  RH  065%=      5-min Rain = 0
KBR1 241005Z 32003KT M05/M11 A3024 RMK A01 T10511107  RH  065%=      5-min Rain = 0
KBR1 241006Z 32003KT M05/M11 A3024 RMK A01 T10521108  RH  065%=      5-min Rain = 0
KBR1 241007Z 32003KT M05/M11 A3024 RMK A01 T10521108  RH  065%=      5-min Rain = 0
KBR1 241008Z 33003KT M05/M11 A3024 RMK A01 T10511107  RH  065%=      5-min Rain = 0
KBR1 241009Z 33003KT M05/M11 A3024 RMK A01 T10511108  RH  065%=      5-min Rain = 0
KBR1 241010Z 33003KT M05/M11 A3024 RMK A01 T10521108  RH  065%=      5-min Rain = 0
KBR1 241011Z 32003KT M05/M11 A3024 RMK A01 T10521108  RH  065%=      5-min Rain = 0
KBR1 241012Z 32003KT M05/M11 A3024 RMK A01 T10521109  RH  064%=      5-min Rain = 0
KBR1 241013Z 31003KT M05/M11 A3024 RMK A01 T10511109  RH  064%=      5-min Rain = 0
KBR1 241014Z 31003KT M05/M11 A3024 RMK A01 T10511109  RH  063%=      5-min Rain = 0
KBR1 241015Z 30003KT M05/M11 A3024 RMK A01 T10511110  RH  063%=      5-min Rain = 0
KBR1 241016Z 30003KT M05/M11 A3024 RMK A01 T10511110  RH  063%=      5-min Rain = 0
KBR1 241017Z 30003KT M05/M11 A3024 RMK A01 T10501110  RH  063%=      5-min Rain = 0
KBR1 241018Z 30003KT M05/M11 A3024 RMK A01 T10511110  RH  063%=      5-min Rain = 0
KBR1 241019Z 30003KT M05/M11 A3024 RMK A01 T10511110  RH  063%=      5-min Rain = 0
KBR1 241020Z 30003KT M05/M11 A3024 RMK A01 T10511110  RH  063%=      5-min Rain = 0
KBR1 241021Z 31003KT M05/M11 A3024 RMK A01 T10501110  RH  063%=      5-min Rain = 0
KBR1 241022Z 31004KT M05/M11 A3024 RMK A01 T10511110  RH  063%=      5-min Rain = 0
KBR1 241023Z 31003KT M05/M11 A3024 RMK A01 T10511110  RH  063%=      5-min Rain = 0
KBR1 241024Z 30003KT M05/M11 A3024 RMK A01 T10501110  RH  063%=      5-min Rain = 0
KBR1 241025Z 30003KT M05/M11 A3024 RMK A01 T10511110  RH  063%=      5-min Rain = 0
KBR1 241026Z 30003KT M05/M11 A3024 RMK A01 T10511110  RH  063%=      5-min Rain = 0
KBR1 241027Z 30002KT M05/M11 A3024 RMK A01 T10521110  RH  064%=      5-min Rain = 0
KBR1 241028Z 31002KT M05/M11 A3024 RMK A01 T10521110  RH  064%=      5-min Rain = 0
KBR1 241029Z 30002KT M05/M11 A3024 RMK A01 T10521110  RH  064%=      5-min Rain = 0
KBR1 241030Z 30002KT M05/M11 A3024 RMK A01 T10521110  RH  064%=      5-min Rain = 0
KBR1 241031Z 31002KT M05/M11 A3024 RMK A01 T10521111  RH  064%=      5-min Rain = 0
KBR1 241032Z 31003KT M05/M11 A3024 RMK A01 T10521110  RH  064%=      5-min Rain = 0
KBR1 241033Z 31003KT M05/M11 A3024 RMK A01 T10521111  RH  064%=      5-min Rain = 0
KBR1 241034Z 31003KT M05/M11 A3024 RMK A01 T10531111  RH  064%=      5-min Rain = 0
KBR1 241035Z 31003KT M05/M11 A3024 RMK A01 T10531111  RH  064%=      5-min Rain = 0
KBR1 241036Z 31003KT M05/M11 A3024 RMK A01 T10531111  RH  064%=      5-min Rain = 0
KBR1 241037Z 31003KT M05/M11 A3024 RMK A01 T10531111  RH  064%=      5-min Rain = 0
KBR1 241038Z 31003KT M05/M11 A3024 RMK A01 T10541111  RH  064%=      5-min Rain = 0
KBR1 241039Z 31003KT M05/M11 A3024 RMK A01 T10541111  RH  064%=      5-min Rain = 0
KBR1 241040Z 31003KT M05/M11 A3024 RMK A01 T10541111  RH  064%=      5-min Rain = 0
KBR1 241041Z 30003KT M05/M11 A3024 RMK A01 T10541111  RH  064%=      5-min Rain = 0
KBR1 241042Z 30003KT M05/M11 A3024 RMK A01 T10541111  RH  064%=      5-min Rain = 0
KBR1 241043Z 30003KT M05/M11 A3024 RMK A01 T10541111  RH  064%=      5-min Rain = 0
KBR1 241044Z 30003KT M05/M11 A3024 RMK A01 T10541111  RH  064%=      5-min Rain = 0
KBR1 241045Z 30003KT M05/M11 A3024 RMK A01 T10541111  RH  064%=      5-min Rain = 0
KBR1 241046Z 30003KT M06/M11 A3024 RMK A01 T10551111  RH  065%=      5-min Rain = 0
KBR1 241047Z 30003KT M06/M11 A3024 RMK A01 T10551111  RH  065%=      5-min Rain = 0
KBR1 241048Z 31003KT M06/M11 A3024 RMK A01 T10551111  RH  065%=      5-min Rain = 0
KBR1 241049Z 31002KT M06/M11 A3024 RMK A01 T10551111  RH  065%=      5-min Rain = 0
KBR1 241050Z 31003KT M06/M11 A3024 RMK A01 T10561111  RH  065%=      5-min Rain = 0
KBR1 241051Z 31003KT M06/M11 A3024 RMK A01 T10561110  RH  066%=      5-min Rain = 0
KBR1 241052Z 31003KT M06/M11 A3024 RMK A01 T10571111  RH  066%=      5-min Rain = 0
KBR1 241053Z 31003KT M06/M11 A3024 RMK A01 T10581111  RH  066%=      5-min Rain = 0
KBR1 241054Z 31003KT M06/M11 A3024 RMK A01 T10581111  RH  066%=      5-min Rain = 0
KBR1 241055Z 31003KT M06/M11 A3024 RMK A01 T10581111  RH  066%=      5-min Rain = 0
KBR1 241056Z 31003KT M06/M11 A3024 RMK A01 T10581111  RH  066%=      5-min Rain = 0
KBR1 241057Z 32003KT M06/M11 A3024 RMK A01 T10581112  RH  066%=      5-min Rain = 0
KBR1 241058Z 32003KT M06/M11 A3024 RMK A01 T10571111  RH  066%=      5-min Rain = 0
KBR1 241059Z 33003KT M06/M11 A3024 RMK A01 T10571111  RH  066%=      5-min Rain = 0
KBR1 241100Z 32003KT M06/M11 A3025 RMK A01 T10571112  RH  065%=      5-min Rain = 0
KBR1 241101Z 32003KT M06/M11 A3025 RMK A01 T10581112  RH  065%=      5-min Rain = 0
KBR1 241102Z 32003KT M06/M11 A3025 RMK A01 T10571112  RH  065%=      5-min Rain = 0
KBR1 241103Z 32003KT M06/M11 A3025 RMK A01 T10571112  RH  065%=      5-min Rain = 0
KBR1 241104Z 32003KT M06/M11 A3025 RMK A01 T10571113  RH  065%=      5-min Rain = 0
KBR1 241105Z 32003KT M06/M11 A3024 RMK A01 T10571112  RH  065%=      5-min Rain = 0
KBR1 241106Z 32003KT M06/M11 A3025 RMK A01 T10571112  RH  065%=      5-min Rain = 0
KBR1 241107Z 32002KT M06/M11 A3025 RMK A01 T10571112  RH  065%=      5-min Rain = 0
KBR1 241108Z 31003KT M06/M11 A3025 RMK A01 T10571112  RH  065%=      5-min Rain = 0
KBR1 241109Z 30003KT M06/M11 A3025 RMK A01 T10571113  RH  065%=      5-min Rain = 0
KBR1 241110Z 31002KT M06/M11 A3025 RMK A01 T10571112  RH  065%=      5-min Rain = 0
KBR1 241111Z 30003KT M06/M11 A3025 RMK A01 T10561112  RH  065%=      5-min Rain = 0
KBR1 241112Z 31003KT M06/M11 A3025 RMK A01 T10561112  RH  065%=      5-min Rain = 0
KBR1 241113Z 31003KT M06/M11 A3025 RMK A01 T10561113  RH  064%=      5-min Rain = 0
KBR1 241114Z 32002KT M06/M11 A3025 RMK A01 T10551113  RH  064%=      5-min Rain = 0
KBR1 241115Z 33003KT M05/M11 A3025 RMK A01 T10541112  RH  064%=      5-min Rain = 0
KBR1 241116Z 32003KT M05/M11 A3025 RMK A01 T10541112  RH  064%=      5-min Rain = 0
KBR1 241117Z 32002KT M06/M11 A3025 RMK A01 T10551112  RH  064%=      5-min Rain = 0
KBR1 241118Z 33002KT M06/M11 A3025 RMK A01 T10551113  RH  064%=      5-min Rain = 0
KBR1 241119Z 32002KT M06/M11 A3024 RMK A01 T10561113  RH  064%=      5-min Rain = 0
KBR1 241120Z 32002KT M06/M11 A3024 RMK A01 T10561114  RH  064%=      5-min Rain = 0
KBR1 241121Z 31002KT M06/M11 A3024 RMK A01 T10561114  RH  064%=      5-min Rain = 0
KBR1 241122Z 31003KT M06/M11 A3024 RMK A01 T10561113  RH  064%=      5-min Rain = 0
KBR1 241123Z 31003KT M06/M11 A3024 RMK A01 T10561114  RH  064%=      5-min Rain = 0
KBR1 241124Z 31003KT M06/M11 A3024 RMK A01 T10571114  RH  064%=      5-min Rain = 0
KBR1 241125Z 32003KT M06/M11 A3025 RMK A01 T10571114  RH  064%=      5-min Rain = 0
KBR1 241126Z 33003KT M06/M11 A3025 RMK A01 T10561114  RH  064%=      5-min Rain = 0
KBR1 241127Z 33003KT M06/M11 A3025 RMK A01 T10561114  RH  064%=      5-min Rain = 0
KBR1 241128Z 34003KT M06/M11 A3025 RMK A01 T10561114  RH  064%=      5-min Rain = 0
KBR1 241129Z 33003KT M06/M11 A3025 RMK A01 T10561114  RH  064%=      5-min Rain = 0
KBR1 241130Z 33003KT M06/M11 A3025 RMK A01 T10571114  RH  064%=      5-min Rain = 0
KBR1 241131Z 33003KT M06/M12 A3025 RMK A01 T10581115  RH  064%=      5-min Rain = 0
KBR1 241132Z 33003KT M06/M12 A3025 RMK A01 T10581115  RH  064%=      5-min Rain = 0
KBR1 241133Z 32003KT M06/M12 A3025 RMK A01 T10581115  RH  064%=      5-min Rain = 0
KBR1 241134Z 32003KT M06/M11 A3025 RMK A01 T10571114  RH  064%=      5-min Rain = 0
KBR1 241135Z 31003KT M06/M11 A3025 RMK A01 T10571114  RH  064%=      5-min Rain = 0
KBR1 241136Z 31003KT M06/M12 A3025 RMK A01 T10571115  RH  064%=      5-min Rain = 0
KBR1 241137Z 31003KT M06/M11 A3025 RMK A01 T10561114  RH  064%=      5-min Rain = 0
KBR1 241138Z 31003KT M06/M12 A3025 RMK A01 T10561115  RH  063%=      5-min Rain = 0
KBR1 241139Z 31003KT M06/M12 A3025 RMK A01 T10561115  RH  063%=      5-min Rain = 0
KBR1 241140Z 32003KT M06/M12 A3025 RMK A01 T10551115  RH  063%=      5-min Rain = 0
KBR1 241141Z 32003KT M06/M11 A3025 RMK A01 T10551114  RH  063%=      5-min Rain = 0
KBR1 241142Z 32003KT M06/M11 A3025 RMK A01 T10551114  RH  063%=      5-min Rain = 0
KBR1 241143Z 32003KT M06/M11 A3025 RMK A01 T10551114  RH  063%=      5-min Rain = 0
KBR1 241144Z 32003KT M06/M11 A3025 RMK A01 T10551114  RH  063%=      5-min Rain = 0
KBR1 241145Z 31003KT M06/M11 A3025 RMK A01 T10551114  RH  063%=      5-min Rain = 0
KBR1 241146Z 31003KT M06/M11 A3025 RMK A01 T10551114  RH  063%=      5-min Rain = 0
KBR1 241147Z 31002KT M06/M12 A3025 RMK A01 T10561115  RH  063%=      5-min Rain = 0
KBR1 241148Z 31003KT M06/M11 A3025 RMK A01 T10561114  RH  064%=      5-min Rain = 0
KBR1 241149Z 31003KT M06/M11 A3025 RMK A01 T10561114  RH  064%=      5-min Rain = 0
KBR1 241150Z 30002KT M06/M11 A3025 RMK A01 T10571114  RH  064%=      5-min Rain = 0
KBR1 241151Z 31003KT M06/M11 A3025 RMK A01 T10561114  RH  064%=      5-min Rain = 0
KBR1 241152Z 30003KT M06/M11 A3025 RMK A01 T10561114  RH  064%=      5-min Rain = 0
KBR1 241153Z 31003KT M06/M11 A3025 RMK A01 T10551113  RH  064%=      5-min Rain = 0
KBR1 241154Z 31003KT M06/M11 A3025 RMK A01 T10551114  RH  063%=      5-min Rain = 0
KBR1 241155Z 32003KT M06/M11 A3025 RMK A01 T10551114  RH  063%=      5-min Rain = 0
KBR1 241156Z 33004KT M06/M11 A3025 RMK A01 T10551113  RH  064%=      5-min Rain = 0
KBR1 241157Z 33004KT M06/M11 A3025 RMK A01 T10561113  RH  064%=      5-min Rain = 0
KBR1 241158Z 34004KT M06/M12 A3025 RMK A01 T10581115  RH  064%=      5-min Rain = 0
KBR1 241159Z 34004KT M06/M12 A3025 RMK A01 T10621117  RH  065%=      5-min Rain = 0
KBR1 241200Z 34004KT M06/M12 A3025 RMK A01 T10631117  RH  066%=      5-min Rain = 0
KBR1 241201Z 34004KT M06/M12 A3026 RMK A01 T10621116  RH  066%=      5-min Rain = 0
KBR1 241202Z 34004KT M06/M12 A3026 RMK A01 T10611115  RH  066%=      5-min Rain = 0
KBR1 241203Z 34004KT M06/M12 A3026 RMK A01 T10601115  RH  065%=      5-min Rain = 0
KBR1 241204Z 33004KT M06/M12 A3026 RMK A01 T10581115  RH  064%=      5-min Rain = 0
KBR1 241205Z 34004KT M06/M12 A3026 RMK A01 T10571115  RH  063%=      5-min Rain = 0
KBR1 241206Z 34004KT M06/M12 A3026 RMK A01 T10571116  RH  063%=      5-min Rain = 0
KBR1 241207Z 34003KT M06/M12 A3026 RMK A01 T10571116  RH  063%=      5-min Rain = 0
KBR1 241208Z 35002KT M06/M12 A3026 RMK A01 T10571116  RH  063%=      5-min Rain = 0
KBR1 241209Z 34003KT M06/M12 A3026 RMK A01 T10581117  RH  063%=      5-min Rain = 0
KBR1 241210Z 34003KT M06/M12 A3026 RMK A01 T10601117  RH  064%=      5-min Rain = 0
KBR1 241211Z 34004KT M06/M12 A3025 RMK A01 T10601117  RH  064%=      5-min Rain = 0
KBR1 241212Z 33004KT M06/M12 A3025 RMK A01 T10591117  RH  064%=      5-min Rain = 0
KBR1 241213Z 33004KT M06/M12 A3025 RMK A01 T10581117  RH  063%=      5-min Rain = 0
KBR1 241214Z 33004KT M06/M12 A3025 RMK A01 T10571117  RH  063%=      5-min Rain = 0
KBR1 241215Z 33004KT M06/M12 A3025 RMK A01 T10571117  RH  062%=      5-min Rain = 0
KBR1 241216Z 32004KT M06/M12 A3025 RMK A01 T10571118  RH  062%=      5-min Rain = 0
KBR1 241217Z 32004KT M06/M12 A3025 RMK A01 T10581118  RH  063%=      5-min Rain = 0
KBR1 241218Z 33004KT M06/M12 A3025 RMK A01 T10581118  RH  063%=      5-min Rain = 0
KBR1 241219Z 33003KT M06/M12 A3025 RMK A01 T10581118  RH  063%=      5-min Rain = 0
KBR1 241220Z 33003KT M06/M12 A3025 RMK A01 T10581117  RH  063%=      5-min Rain = 0
KBR1 241221Z 33003KT M06/M12 A3025 RMK A01 T10581118  RH  063%=      5-min Rain = 0
KBR1 241222Z 33003KT M06/M12 A3025 RMK A01 T10581118  RH  063%=      5-min Rain = 0
KBR1 241223Z 33003KT M06/M12 A3026 RMK A01 T10581118  RH  063%=      5-min Rain = 0
KBR1 241224Z 32003KT M06/M12 A3026 RMK A01 T10581118  RH  063%=      5-min Rain = 0
KBR1 241225Z 32003KT M06/M12 A3026 RMK A01 T10581118  RH  063%=      5-min Rain = 0
KBR1 241226Z 31003KT M06/M12 A3026 RMK A01 T10581118  RH  063%=      5-min Rain = 0
KBR1 241227Z 31003KT M06/M12 A3026 RMK A01 T10581118  RH  062%=      5-min Rain = 0
KBR1 241228Z 31003KT M06/M12 A3026 RMK A01 T10581118  RH  062%=      5-min Rain = 0
KBR1 241229Z 31003KT M06/M12 A3026 RMK A01 T10581118  RH  062%=      5-min Rain = 0
KBR1 241230Z 31003KT M06/M12 A3026 RMK A01 T10571118  RH  062%=      5-min Rain = 0
KBR1 241231Z 31004KT M06/M12 A3026 RMK A01 T10571118  RH  062%=      5-min Rain = 0
KBR1 241232Z 31003KT M06/M12 A3026 RMK A01 T10571118  RH  062%=      5-min Rain = 0
KBR1 241233Z 31003KT M06/M12 A3026 RMK A01 T10571118  RH  062%=      5-min Rain = 0
KBR1 241234Z 31003KT M06/M12 A3026 RMK A01 T10561118  RH  062%=      5-min Rain = 0
KBR1 241235Z 32003KT M06/M12 A3026 RMK A01 T10561118  RH  062%=      5-min Rain = 0
KBR1 241236Z 32003KT M06/M12 A3026 RMK A01 T10561118  RH  062%=      5-min Rain = 0
KBR1 241237Z 33003KT M06/M12 A3026 RMK A01 T10561118  RH  061%=      5-min Rain = 0
KBR1 241238Z 33003KT M06/M12 A3026 RMK A01 T10551118  RH  061%=      5-min Rain = 0
KBR1 241239Z 33004KT M06/M12 A3026 RMK A01 T10561118  RH  061%=      5-min Rain = 0
KBR1 241240Z 33004KT M06/M12 A3026 RMK A01 T10551119  RH  061%=      5-min Rain = 0
KBR1 241241Z 33004KT M06/M12 A3026 RMK A01 T10551118  RH  061%=      5-min Rain = 0
KBR1 241242Z 33004KT M05/M12 A3026 RMK A01 T10541118  RH  061%=      5-min Rain = 0
KBR1 241243Z 33004KT M05/M12 A3026 RMK A01 T10541119  RH  060%=      5-min Rain = 0
KBR1 241244Z 33004KT M05/M12 A3026 RMK A01 T10541119  RH  060%=      5-min Rain = 0
KBR1 241245Z 32004KT M05/M12 A3026 RMK A01 T10531119  RH  060%=      5-min Rain = 0
KBR1 241246Z 32004KT M05/M12 A3026 RMK A01 T10531119  RH  060%=      5-min Rain = 0
KBR1 241247Z 32004KT M05/M12 A3026 RMK A01 T10541119  RH  060%=      5-min Rain = 0
KBR1 241248Z 32003KT M05/M12 A3026 RMK A01 T10541120  RH  060%=      5-min Rain = 0
KBR1 241249Z 32003KT M05/M12 A3026 RMK A01 T10541119  RH  060%=      5-min Rain = 0
KBR1 241250Z 32003KT M05/M12 A3026 RMK A01 T10541119  RH  060%=      5-min Rain = 0
KBR1 241251Z 33003KT M06/M12 A3026 RMK A01 T10551119  RH  060%=      5-min Rain = 0
KBR1 241252Z 32003KT M06/M12 A3026 RMK A01 T10551119  RH  060%=      5-min Rain = 0
KBR1 241253Z 33003KT M06/M12 A3026 RMK A01 T10551119  RH  060%=      5-min Rain = 0
KBR1 241254Z 33003KT M06/M12 A3026 RMK A01 T10551119  RH  060%=      5-min Rain = 0
KBR1 241255Z 33003KT M05/M12 A3026 RMK A01 T10541120  RH  060%=      5-min Rain = 0
KBR1 241256Z 33003KT M05/M12 A3026 RMK A01 T10541120  RH  060%=      5-min Rain = 0
KBR1 241257Z 33003KT M05/M12 A3026 RMK A01 T10541120  RH  060%=      5-min Rain = 0
KBR1 241258Z 33003KT M05/M12 A3026 RMK A01 T10541120  RH  060%=      5-min Rain = 0
KBR1 241259Z 33003KT M06/M12 A3026 RMK A01 T10551120  RH  060%=      5-min Rain = 0
KBR1 241300Z 33003KT M05/M12 A3026 RMK A01 T10541120  RH  060%=      5-min Rain = 0
KBR1 241301Z 33003KT M05/M12 A3026 RMK A01 T10541120  RH  060%=      5-min Rain = 0
KBR1 241302Z 33003KT M05/M12 A3026 RMK A01 T10531120  RH  059%=      5-min Rain = 0
KBR1 241303Z 33003KT M05/M12 A3026 RMK A01 T10521120  RH  059%=      5-min Rain = 0
KBR1 241304Z 33003KT M05/M12 A3026 RMK A01 T10521120  RH  059%=      5-min Rain = 0
KBR1 241305Z 33003KT M05/M12 A3026 RMK A01 T10521120  RH  059%=      5-min Rain = 0
KBR1 241306Z 32003KT M05/M12 A3026 RMK A01 T10511120  RH  058%=      5-min Rain = 0
KBR1 241307Z 32003KT M05/M12 A3026 RMK A01 T10511120  RH  058%=      5-min Rain = 0
KBR1 241308Z 32003KT M05/M12 A3026 RMK A01 T10511120  RH  058%=      5-min Rain = 0
KBR1 241309Z 32003KT M05/M12 A3026 RMK A01 T10521121  RH  058%=      5-min Rain = 0
KBR1 241310Z 32004KT M05/M12 A3026 RMK A01 T10511120  RH  058%=      5-min Rain = 0
KBR1 241311Z 32004KT M05/M12 A3026 RMK A01 T10511121  RH  058%=      5-min Rain = 0
KBR1 241312Z 32004KT M05/M12 A3026 RMK A01 T10511120  RH  058%=      5-min Rain = 0
KBR1 241313Z 32004KT M05/M12 A3026 RMK A01 T10511120  RH  058%=      5-min Rain = 0
KBR1 241314Z 32004KT M05/M12 A3026 RMK A01 T10511120  RH  058%=      5-min Rain = 0
KBR1 241315Z 32004KT M05/M12 A3026 RMK A01 T10511120  RH  058%=      5-min Rain = 0
KBR1 241316Z 32004KT M05/M12 A3026 RMK A01 T10511120  RH  058%=      5-min Rain = 0
KBR1 241317Z 33003KT M05/M12 A3026 RMK A01 T10511120  RH  058%=      5-min Rain = 0
KBR1 241318Z 33003KT M05/M12 A3026 RMK A01 T10521120  RH  058%=      5-min Rain = 0
KBR1 241319Z 33003KT M05/M12 A3026 RMK A01 T10521120  RH  059%=      5-min Rain = 0
KBR1 241320Z 33002KT M05/M12 A3026 RMK A01 T10521120  RH  059%=      5-min Rain = 0
KBR1 241321Z 33002KT M05/M12 A3026 RMK A01 T10521120  RH  059%=      5-min Rain = 0
KBR1 241322Z 32003KT M05/M12 A3026 RMK A01 T10521121  RH  058%=      5-min Rain = 0
KBR1 241323Z 32002KT M05/M12 A3026 RMK A01 T10521121  RH  058%=      5-min Rain = 0
KBR1 241324Z 32003KT M05/M12 A3026 RMK A01 T10511121  RH  058%=      5-min Rain = 0
KBR1 241325Z 33003KT M05/M12 A3026 RMK A01 T10501121  RH  058%=      5-min Rain = 0
KBR1 241326Z 33003KT M05/M12 A3026 RMK A01 T10491121  RH  057%=      5-min Rain = 0
KBR1 241327Z 32003KT M05/M12 A3026 RMK A01 T10491121  RH  057%=      5-min Rain = 0
KBR1 241328Z 31003KT M05/M12 A3027 RMK A01 T10491121  RH  057%=      5-min Rain = 0
KBR1 241329Z 31003KT M05/M12 A3027 RMK A01 T10491121  RH  057%=      5-min Rain = 0
KBR1 241330Z 31003KT M05/M12 A3027 RMK A01 T10491121  RH  057%=      5-min Rain = 0
KBR1 241331Z 31003KT M05/M12 A3027 RMK A01 T10491121  RH  057%=      5-min Rain = 0
KBR1 241332Z 32003KT M05/M12 A3027 RMK A01 T10491122  RH  057%=      5-min Rain = 0
KBR1 241333Z 32003KT M05/M12 A3027 RMK A01 T10481122  RH  056%=      5-min Rain = 0
KBR1 241334Z 32003KT M05/M12 A3027 RMK A01 T10471121  RH  056%=      5-min Rain = 0
KBR1 241335Z 32003KT M05/M12 A3027 RMK A01 T10461121  RH  056%=      5-min Rain = 0
KBR1 241336Z 32003KT M05/M12 A3027 RMK A01 T10461122  RH  056%=      5-min Rain = 0
KBR1 241337Z 32002KT M05/M12 A3027 RMK A01 T10461122  RH  055%=      5-min Rain = 0
KBR1 241338Z 31002KT M05/M12 A3027 RMK A01 T10451122  RH  055%=      5-min Rain = 0
KBR1 241339Z 32003KT M05/M12 A3027 RMK A01 T10451122  RH  055%=      5-min Rain = 0
KBR1 241340Z 31003KT M05/M12 A3027 RMK A01 T10451122  RH  055%=      5-min Rain = 0
KBR1 241341Z 31003KT M05/M12 A3027 RMK A01 T10451122  RH  055%=      5-min Rain = 0
KBR1 241342Z 31003KT M04/M12 A3027 RMK A01 T10441122  RH  054%=      5-min Rain = 0
KBR1 241343Z 30003KT M04/M12 A3026 RMK A01 T10441122  RH  054%=      5-min Rain = 0
KBR1 241344Z 30003KT M04/M12 A3026 RMK A01 T10431122  RH  054%=      5-min Rain = 0
KBR1 241345Z 30003KT M04/M12 A3026 RMK A01 T10431122  RH  054%=      5-min Rain = 0
KBR1 241346Z 30003KT M04/M12 A3026 RMK A01 T10431122  RH  054%=      5-min Rain = 0
KBR1 241347Z 30003KT M04/M12 A3026 RMK A01 T10431122  RH  054%=      5-min Rain = 0
KBR1 241348Z 30003KT M04/M12 A3026 RMK A01 T10431122  RH  054%=      5-min Rain = 0
KBR1 241349Z 30003KT M04/M12 A3026 RMK A01 T10431122  RH  054%=      5-min Rain = 0
KBR1 241350Z 30003KT M04/M12 A3026 RMK A01 T10421122  RH  054%=      5-min Rain = 0
KBR1 241351Z 30003KT M04/M12 A3027 RMK A01 T10421122  RH  054%=      5-min Rain = 0
KBR1 241352Z 31003KT M04/M12 A3027 RMK A01 T10421121  RH  054%=      5-min Rain = 0
KBR1 241353Z 31003KT M04/M12 A3027 RMK A01 T10421121  RH  054%=      5-min Rain = 0
KBR1 241354Z 32003KT M04/M12 A3027 RMK A01 T10421120  RH  054%=      5-min Rain = 0
KBR1 241355Z 32003KT M04/M12 A3027 RMK A01 T10421120  RH  055%=      5-min Rain = 0
KBR1 241356Z 32004KT M04/M12 A3027 RMK A01 T10421120  RH  055%=      5-min Rain = 0
KBR1 241357Z 32004KT M04/M12 A3027 RMK A01 T10431121  RH  055%=      5-min Rain = 0
KBR1 241358Z 32004KT M04/M12 A3027 RMK A01 T10431120  RH  055%=      5-min Rain = 0
KBR1 241359Z 32004KT M04/M12 A3027 RMK A01 T10431119  RH  055%=      5-min Rain = 0
KBR1 241400Z 32004KT M04/M12 A3027 RMK A01 T10431118  RH  056%=      5-min Rain = 0
KBR1 241401Z 32004KT M04/M12 A3027 RMK A01 T10431117  RH  056%=      5-min Rain = 0
KBR1 241402Z 32004KT M04/M12 A3027 RMK A01 T10431115  RH  057%=      5-min Rain = 0
KBR1 241403Z 32004KT M04/M11 A3027 RMK A01 T10431112  RH  058%=      5-min Rain = 0
KBR1 241404Z 32003KT M04/M11 A3027 RMK A01 T10421109  RH  060%=      5-min Rain = 0
KBR1 241405Z 32003KT M04/M11 A3027 RMK A01 T10421106  RH  061%=      5-min Rain = 0
KBR1 241406Z 32003KT M04/M11 A3027 RMK A01 T10421105  RH  062%=      5-min Rain = 0
KBR1 241407Z 32003KT M04/M10 A3027 RMK A01 T10411103  RH  062%=      5-min Rain = 0
KBR1 241408Z 32003KT M04/M11 A3027 RMK A01 T10401105  RH  061%=      5-min Rain = 0
KBR1 241409Z 31002KT M04/M10 A3027 RMK A01 T10391102  RH  062%=      5-min Rain = 0
KBR1 241410Z 31002KT M04/M10 A3027 RMK A01 T10391101  RH  062%=      5-min Rain = 0
KBR1 241411Z 31002KT M04/M10 A3027 RMK A01 T10381101  RH  062%=      5-min Rain = 0
KBR1 241412Z 32002KT M04/M10 A3027 RMK A01 T10381100  RH  062%=      5-min Rain = 0
KBR1 241413Z 31002KT M04/M10 A3027 RMK A01 T10371100  RH  062%=      5-min Rain = 0
KBR1 241414Z 32002KT M04/M10 A3027 RMK A01 T10371100  RH  061%=      5-min Rain = 0
KBR1 241415Z 32001KT M04/M10 A3027 RMK A01 T10361100  RH  061%=      5-min Rain = 0
KBR1 241416Z 32001KT M04/M10 A3028 RMK A01 T10351096  RH  063%=      5-min Rain = 0
KBR1 241417Z 32002KT M04/M10 A3028 RMK A01 T10351096  RH  063%=      5-min Rain = 0
KBR1 241418Z 33002KT M03/M10 A3028 RMK A01 T10341097  RH  062%=      5-min Rain = 0
KBR1 241419Z 33003KT M03/M10 A3028 RMK A01 T10341096  RH  062%=      5-min Rain = 0
KBR1 241420Z 34002KT M03/M10 A3028 RMK A01 T10331097  RH  061%=      5-min Rain = 0
KBR1 241421Z 34002KT M03/M10 A3028 RMK A01 T10331099  RH  060%=      5-min Rain = 0
KBR1 241422Z 35002KT M03/M10 A3028 RMK A01 T10321096  RH  061%=      5-min Rain = 0
KBR1 241423Z 35002KT M03/M09 A3028 RMK A01 T10321092  RH  063%=      5-min Rain = 0
KBR1 241424Z 34003KT M03/M09 A3028 RMK A01 T10321094  RH  062%=      5-min Rain = 0
KBR1 241425Z 34003KT M03/M10 A3028 RMK A01 T10321096  RH  061%=      5-min Rain = 0
KBR1 241426Z 34003KT M03/M10 A3028 RMK A01 T10321096  RH  061%=      5-min Rain = 0
KBR1 241427Z 34003KT M03/M10 A3028 RMK A01 T10311095  RH  062%=      5-min Rain = 0
KBR1 241428Z 33002KT M03/M09 A3028 RMK A01 T10301093  RH  062%=      5-min Rain = 0
KBR1 241429Z 34002KT M03/M09 A3028 RMK A01 T10291093  RH  061%=      5-min Rain = 0
KBR1 241430Z 33001KT M03/M09 A3028 RMK A01 T10291092  RH  062%=      5-min Rain = 0
KBR1 241431Z 33002KT M03/M09 A3028 RMK A01 T10281089  RH  063%=      5-min Rain = 0
KBR1 241432Z 33002KT M03/M09 A3028 RMK A01 T10271088  RH  063%=      5-min Rain = 0
KBR1 241433Z 34002KT M03/M09 A3028 RMK A01 T10261090  RH  061%=      5-min Rain = 0
KBR1 241434Z 34001KT M03/M09 A3028 RMK A01 T10251088  RH  062%=      5-min Rain = 0
KBR1 241435Z 34002KT M02/M09 A3028 RMK A01 T10241087  RH  062%=      5-min Rain = 0
KBR1 241436Z 33001KT M02/M08 A3028 RMK A01 T10221084  RH  063%=      5-min Rain = 0
KBR1 241437Z 33001KT M02/M08 A3028 RMK A01 T10211084  RH  062%=      5-min Rain = 0
KBR1 241438Z 33001KT M02/M09 A3028 RMK A01 T10201085  RH  061%=      5-min Rain = 0
KBR1 241439Z 34000KT M02/M09 A3028 RMK A01 T10181086  RH  060%=      5-min Rain = 0
KBR1 241440Z 34001KT M02/M09 A3028 RMK A01 T10171086  RH  059%=      5-min Rain = 0
KBR1 241441Z 36001KT M02/M08 A3028 RMK A01 T10151082  RH  060%=      5-min Rain = 0
KBR1 241442Z 35001KT M01/M08 A3028 RMK A01 T10141080  RH  061%=      5-min Rain = 0
KBR1 241443Z 01001KT M01/M08 A3028 RMK A01 T10131080  RH  060%=      5-min Rain = 0
KBR1 241444Z 00001KT M01/M08 A3028 RMK A01 T10111078  RH  060%=      5-min Rain = 0
KBR1 241445Z 00001KT M01/M08 A3028 RMK A01 T10111080  RH  060%=      5-min Rain = 0
KBR1 241446Z 34001KT M01/M08 A3028 RMK A01 T10101080  RH  059%=      5-min Rain = 0
KBR1 241447Z 35001KT M01/M08 A3028 RMK A01 T10091080  RH  059%=      5-min Rain = 0
KBR1 241448Z 33001KT M01/M08 A3028 RMK A01 T10081081  RH  058%=      5-min Rain = 0
KBR1 241449Z 31001KT M01/M08 A3029 RMK A01 T10071082  RH  057%=      5-min Rain = 0
KBR1 241450Z 30000KT M01/M09 A3029 RMK A01 T10061085  RH  055%=      5-min Rain = 0
KBR1 241451Z 00000KT M01/M08 A3029 RMK A01 T10051084  RH  055%=      5-min Rain = 0
KBR1 241452Z 00000KT M00/M08 A3029 RMK A01 T10041083  RH  055%=      5-min Rain = 0
KBR1 241453Z 00000KT M00/M08 A3029 RMK A01 T10021079  RH  056%=      5-min Rain = 0
KBR1 241454Z 00000KT M00/M09 A3029 RMK A01 T10011091  RH  051%=      5-min Rain = 0
KBR1 241455Z 00000KT 00/10 A3029 RMK A01 T00-00-99  RH  047%=      5-min Rain = 0
KBR1 241456Z 00000KT 00/M10 A3029 RMK A01 T00011099  RH  047%=      5-min Rain = 0
KBR1 241457Z 00000KT 00/M10 A3029 RMK A01 T00021099  RH  047%=      5-min Rain = 0
KBR1 241458Z 00000KT 00/M10 A3029 RMK A01 T00031098  RH  047%=      5-min Rain = 0
KBR1 241459Z 25000KT 00/M09 A3029 RMK A01 T00041094  RH  048%=      5-min Rain = 0
KBR1 241500Z 23001KT 00/M09 A3029 RMK A01 T00041088  RH  050%=      5-min Rain = 0
KBR1 241501Z 24001KT 00/M09 A3029 RMK A01 T00041087  RH  050%=      5-min Rain = 0
KBR1 241502Z 23002KT 00/M09 A3029 RMK A01 T00041089  RH  049%=      5-min Rain = 0
KBR1 241503Z 22002KT 00/M10 A3029 RMK A01 T00041097  RH  047%=      5-min Rain = 0
KBR1 241504Z 24002KT 00/M10 A3029 RMK A01 T00041099  RH  046%=      5-min Rain = 0
KBR1 241505Z 22002KT 00/M10 A3029 RMK A01 T00041095  RH  047%=      5-min Rain = 0
KBR1 241506Z 21001KT 00/M10 A303 RMK A01 T00041095  RH  048%=      5-min Rain = 0
KBR1 241507Z 21001KT 01/M09 A303 RMK A01 T00051088  RH  050%=      5-min Rain = 0
KBR1 241508Z 22002KT 01/M10 A303 RMK A01 T00051098  RH  046%=      5-min Rain = 0
KBR1 241509Z 20001KT 01/M11 A303 RMK A01 T00051111  RH  041%=      5-min Rain = 0
KBR1 241510Z 20002KT 01/M10 A303 RMK A01 T00061098  RH  046%=      5-min Rain = 0
KBR1 241511Z 20002KT 01/M10 A303 RMK A01 T00071099  RH  045%=      5-min Rain = 0
KBR1 241512Z 21002KT 01/M10 A303 RMK A01 T00071099  RH  045%=      5-min Rain = 0
KBR1 241513Z 21002KT 01/M10 A303 RMK A01 T00061100  RH  045%=      5-min Rain = 0
KBR1 241514Z 18003KT 01/M10 A303 RMK A01 T00061096  RH  046%=      5-min Rain = 0
KBR1 241515Z 18002KT 01/M09 A303 RMK A01 T00061094  RH  047%=      5-min Rain = 0
KBR1 241516Z 20003KT 01/M09 A303 RMK A01 T00081088  RH  049%=      5-min Rain = 0
KBR1 241517Z 19004KT 01/M09 A303 RMK A01 T00091094  RH  046%=      5-min Rain = 0
KBR1 241518Z 20004KT 01/M09 A303 RMK A01 T00081093  RH  047%=      5-min Rain = 0
KBR1 241519Z 20005KT 01/M10 A303 RMK A01 T00091095  RH  046%=      5-min Rain = 0
KBR1 241520Z 20005KT 01/M10 A303 RMK A01 T00091097  RH  045%=      5-min Rain = 0
KBR1 241521Z 19003KT 01/M10 A303 RMK A01 T00091095  RH  046%=      5-min Rain = 0
KBR1 241522Z 19004KT 01/M09 A303 RMK A01 T00101090  RH  047%=      5-min Rain = 0
KBR1 241523Z 19003KT 01/M09 A303 RMK A01 T00111088  RH  048%=      5-min Rain = 0
KBR1 241524Z 19005KT 01/M08 A303 RMK A01 T00121083  RH  049%=      5-min Rain = 0
KBR1 241525Z 18005KT 01/M09 A303 RMK A01 T00131091  RH  046%=      5-min Rain = 0
KBR1 241526Z 18008KT 01/M10 A303 RMK A01 T00131097  RH  044%=      5-min Rain = 0
KBR1 241527Z 18007KT 01/M11 A303 RMK A01 T00131107  RH  041%=      5-min Rain = 0
KBR1 241528Z 18008KT 01/M11 A303 RMK A01 T00111106  RH  041%=      5-min Rain = 0
KBR1 241529Z 18008KT 01/M11 A303 RMK A01 T00101110  RH  040%=      5-min Rain = 0
KBR1 241530Z 19007KT 01/M11 A303 RMK A01 T00091110  RH  041%=      5-min Rain = 0
KBR1 241531Z 19007KT 01/M11 A303 RMK A01 T00081109  RH  041%=      5-min Rain = 0
KBR1 241532Z 19007KT 01/M11 A303 RMK A01 T00071108  RH  042%=      5-min Rain = 0
KBR1 241533Z 19006KT 01/M11 A303 RMK A01 T00071106  RH  043%=      5-min Rain = 0
KBR1 241534Z 19005KT 01/M11 A303 RMK A01 T00071105  RH  043%=      5-min Rain = 0
KBR1 241535Z 18004KT 01/M10 A303 RMK A01 T00091103  RH  043%=      5-min Rain = 0
KBR1 241536Z 18004KT 01/M10 A303 RMK A01 T00101102  RH  043%=      5-min Rain = 0
KBR1 241537Z 16005KT 01/M10 A303 RMK A01 T00121099  RH  043%=      5-min Rain = 0
KBR1 241538Z 16006KT 01/M11 A303 RMK A01 T00131107  RH  040%=      5-min Rain = 0
KBR1 241539Z 16005KT 01/M11 A303 RMK A01 T00141107  RH  040%=      5-min Rain = 0
KBR1 241540Z 15007KT 01/M11 A303 RMK A01 T00141112  RH  038%=      5-min Rain = 0
KBR1 241541Z 15007KT 02/M11 A303 RMK A01 T00151112  RH  038%=      5-min Rain = 0
KBR1 241542Z 15006KT 02/M11 A303 RMK A01 T00151110  RH  039%=      5-min Rain = 0
KBR1 241543Z 16006KT 02/M11 A303 RMK A01 T00161112  RH  038%=      5-min Rain = 0
KBR1 241544Z 17005KT 02/M12 A303 RMK A01 T00161116  RH  037%=      5-min Rain = 0
KBR1 241545Z 17006KT 02/M11 A303 RMK A01 T00171110  RH  038%=      5-min Rain = 0
KBR1 241546Z 16005KT 02/M11 A303 RMK A01 T00191114  RH  037%=      5-min Rain = 0
KBR1 241547Z 17005KT 02/M12 A303 RMK A01 T00201115  RH  036%=      5-min Rain = 0
KBR1 241548Z 18006KT 02/M12 A303 RMK A01 T00191116  RH  036%=      5-min Rain = 0
KBR1 241549Z 19006KT 02/M11 A3029 RMK A01 T00201113  RH  037%=      5-min Rain = 0
KBR1 241550Z 18005KT 02/M12 A3029 RMK A01 T00191116  RH  036%=      5-min Rain = 0
KBR1 241551Z 19006KT 02/M12 A3029 RMK A01 T00191116  RH  036%=      5-min Rain = 0
KBR1 241552Z 18006KT 02/M11 A3029 RMK A01 T00211109  RH  038%=      5-min Rain = 0
KBR1 241553Z 18007KT 02/M11 A3029 RMK A01 T00231109  RH  037%=      5-min Rain = 0
KBR1 241554Z 17005KT 02/M12 A303 RMK A01 T00221115  RH  035%=      5-min Rain = 0
KBR1 241555Z 18005KT 02/M11 A303 RMK A01 T00221110  RH  037%=      5-min Rain = 0
KBR1 241556Z 17004KT 02/M11 A303 RMK A01 T00241112  RH  036%=      5-min Rain = 0
KBR1 241557Z 19006KT 03/M11 A303 RMK A01 T00251112  RH  036%=      5-min Rain = 0
KBR1 241558Z 18006KT 03/M11 A3029 RMK A01 T00251112  RH  036%=      5-min Rain = 0
KBR1 241559Z 18006KT 03/M11 A303 RMK A01 T00251113  RH  035%=      5-min Rain = 0
KBR1 241600Z 18005KT 02/M12 A3029 RMK A01 T00241118  RH  034%=      5-min Rain = 0
KBR1 241601Z 17005KT 03/M11 A303 RMK A01 T00251114  RH  035%=      5-min Rain = 0
KBR1 241602Z 17007KT 03/M11 A3029 RMK A01 T00271114  RH  034%=      5-min Rain = 0
KBR1 241603Z 16008KT 03/M12 A3029 RMK A01 T00281117  RH  033%=      5-min Rain = 0
KBR1 241604Z 17007KT 03/M12 A303 RMK A01 T00281121  RH  033%=      5-min Rain = 0
KBR1 241605Z 15007KT 03/M12 A303 RMK A01 T00281119  RH  033%=      5-min Rain = 0
KBR1 241606Z 14006KT 03/M12 A3029 RMK A01 T00281119  RH  033%=      5-min Rain = 0
KBR1 241607Z 15005KT 03/M12 A3029 RMK A01 T00271120  RH  033%=      5-min Rain = 0
KBR1 241608Z 16007KT 03/M11 A3029 RMK A01 T00291114  RH  034%=      5-min Rain = 0
KBR1 241609Z 17008KT 03/M12 A3029 RMK A01 T00301116  RH  033%=      5-min Rain = 0
KBR1 241610Z 16007KT 03/M12 A3029 RMK A01 T00311120  RH  032%=      5-min Rain = 0
KBR1 241611Z 16006KT 03/M12 A3029 RMK A01 T00311121  RH  032%=      5-min Rain = 0
KBR1 241612Z 16006KT 03/M12 A3029 RMK A01 T00321115  RH  033%=      5-min Rain = 0
KBR1 241613Z 17007KT 03/M12 A3029 RMK A01 T00341115  RH  033%=      5-min Rain = 0
KBR1 241614Z 17008KT 03/M12 A3029 RMK A01 T00341117  RH  032%=      5-min Rain = 0
KBR1 241615Z 17009KT 03/M12 A3029 RMK A01 T00331120  RH  031%=      5-min Rain = 0
KBR1 241616Z 16006KT 03/M12 A3029 RMK A01 T00321122  RH  031%=      5-min Rain = 0
KBR1 241617Z 17007KT 03/M12 A3029 RMK A01 T00331116  RH  033%=      5-min Rain = 0
KBR1 241618Z 15007KT 04/M11 A3029 RMK A01 T00371109  RH  034%=      5-min Rain = 0
KBR1 241619Z 17007KT 04/M11 A3029 RMK A01 T00381113  RH  032%=      5-min Rain = 0
KBR1 241620Z 18008KT 04/M12 A3029 RMK A01 T00371116  RH  032%=      5-min Rain = 0
KBR1 241621Z 18007KT 04/M12 A3029 RMK A01 T00361115  RH  032%=      5-min Rain = 0
KBR1 241622Z 17007KT 04/M12 A3029 RMK A01 T00371117  RH  031%=      5-min Rain = 0
KBR1 241623Z 16007KT 04/M12 A3029 RMK A01 T00351119  RH  031%=      5-min Rain = 0
KBR1 241624Z 16008KT 04/M12 A3029 RMK A01 T00371118  RH  031%=      5-min Rain = 0
KBR1 241625Z 17007KT 04/M12 A3029 RMK A01 T00371122  RH  030%=      5-min Rain = 0
KBR1 241626Z 17006KT 04/M13 A3029 RMK A01 T00351125  RH  030%=      5-min Rain = 0
KBR1 241627Z 14008KT 04/M12 A3029 RMK A01 T00371117  RH  031%=      5-min Rain = 0
KBR1 241628Z 16009KT 04/M12 A3029 RMK A01 T00381120  RH  031%=      5-min Rain = 0
KBR1 241629Z 15008KT 04/M12 A3029 RMK A01 T00371122  RH  030%=      5-min Rain = 0
KBR1 241630Z 16008KT 04/M12 A3029 RMK A01 T00361123  RH  030%=      5-min Rain = 0
KBR1 241631Z 15009KT 04/M12 A3029 RMK A01 T00361121  RH  031%=      5-min Rain = 0
KBR1 241632Z 18009KT 04/M12 A3029 RMK A01 T00371120  RH  031%=      5-min Rain = 0
KBR1 241633Z 17007KT 04/M12 A3029 RMK A01 T00361122  RH  030%=      5-min Rain = 0
KBR1 241634Z 17007KT 04/M12 A3029 RMK A01 T00371119  RH  031%=      5-min Rain = 0
KBR1 241635Z 17008KT 04/M12 A3029 RMK A01 T00371119  RH  031%=      5-min Rain = 0
KBR1 241636Z 16009KT 04/M12 A3029 RMK A01 T00391118  RH  031%=      5-min Rain = 0
KBR1 241637Z 17008KT 04/M12 A3029 RMK A01 T00381119  RH  031%=      5-min Rain = 0
KBR1 241638Z 16008G13KT 04/M12 A3029 RMK A01 T00381118  RH  031%=      5-min Rain = 0
KBR1 241639Z 14010KT 04/M11 A3029 RMK A01 T00411113  RH  032%=      5-min Rain = 0
KBR1 241640Z 14009KT 04/M12 A3029 RMK A01 T00411116  RH  031%=      5-min Rain = 0
KBR1 241641Z 14010KT 04/M11 A3028 RMK A01 T00401114  RH  032%=      5-min Rain = 0
KBR1 241642Z 15010KT 04/M12 A3029 RMK A01 T00401116  RH  031%=      5-min Rain = 0
KBR1 241643Z 16009KT 04/M12 A3028 RMK A01 T00371119  RH  031%=      5-min Rain = 0
KBR1 241644Z 16009KT 04/M11 A3028 RMK A01 T00381114  RH  032%=      5-min Rain = 0
KBR1 241645Z 16009KT 04/M11 A3028 RMK A01 T00391113  RH  032%=      5-min Rain = 0
KBR1 241646Z 17007KT 04/M11 A3028 RMK A01 T00401112  RH  032%=      5-min Rain = 0
KBR1 241647Z 15008KT 04/M11 A3028 RMK A01 T00391112  RH  032%=      5-min Rain = 0
KBR1 241648Z 16010KT 04/M11 A3028 RMK A01 T00421108  RH  033%=      5-min Rain = 0
KBR1 241649Z 18011KT 04/M11 A3028 RMK A01 T00421108  RH  032%=      5-min Rain = 0
KBR1 241650Z 18010KT 04/M11 A3028 RMK A01 T00421108  RH  033%=      5-min Rain = 0
KBR1 241651Z 16010KT 04/M11 A3028 RMK A01 T00421107  RH  033%=      5-min Rain = 0
KBR1 241652Z 15010KT 05/M10 A3028 RMK A01 T00451104  RH  033%=      5-min Rain = 0
KBR1 241653Z 16010KT 05/M11 A3028 RMK A01 T00451106  RH  032%=      5-min Rain = 0
KBR1 241654Z 17011KT 04/M11 A3028 RMK A01 T00441106  RH  033%=      5-min Rain = 0
KBR1 241655Z 17013KT 05/M11 A3028 RMK A01 T00451105  RH  033%=      5-min Rain = 0
KBR1 241656Z 16011G16KT 05/M11 A3028 RMK A01 T00451106  RH  033%=      5-min Rain = 0
KBR1 241657Z 17011KT 04/M11 A3028 RMK A01 T00441106  RH  033%=      5-min Rain = 0
KBR1 241658Z 17010KT 04/M11 A3028 RMK A01 T00441105  RH  033%=      5-min Rain = 0
KBR1 241659Z 17008KT 04/M10 A3028 RMK A01 T00441104  RH  033%=      5-min Rain = 0
KBR1 241700Z 16009G14KT 05/M10 A3028 RMK A01 T00491098  RH  034%=      5-min Rain = 0
KBR1 241701Z 14011KT 05/M10 A3028 RMK A01 T00501100  RH  033%=      5-min Rain = 0
KBR1 241702Z 14011KT 05/M11 A3028 RMK A01 T00491105  RH  032%=      5-min Rain = 0
KBR1 241703Z 15011KT 05/M11 A3028 RMK A01 T00451106  RH  032%=      5-min Rain = 0
KBR1 241704Z 16011KT 05/M10 A3028 RMK A01 T00471101  RH  033%=      5-min Rain = 0
KBR1 241705Z 16008KT 05/M10 A3028 RMK A01 T00481102  RH  033%=      5-min Rain = 0
KBR1 241706Z 15008KT 05/M10 A3028 RMK A01 T00491098  RH  034%=      5-min Rain = 0
KBR1 241707Z 15009KT 05/M10 A3028 RMK A01 T00511099  RH  033%=      5-min Rain = 0
KBR1 241708Z 14009KT 05/M10 A3028 RMK A01 T00511098  RH  033%=      5-min Rain = 0
KBR1 241709Z 15010KT 05/M10 A3028 RMK A01 T00531095  RH  034%=      5-min Rain = 0
KBR1 241710Z 16009KT 05/M10 A3028 RMK A01 T00541096  RH  033%=      5-min Rain = 0
KBR1 241711Z 17010KT 05/M10 A3027 RMK A01 T00541095  RH  033%=      5-min Rain = 0
KBR1 241712Z 16010KT 05/M10 A3027 RMK A01 T00541096  RH  033%=      5-min Rain = 0
KBR1 241713Z 14012KT 05/M10 A3027 RMK A01 T00541095  RH  033%=      5-min Rain = 0
KBR1 241714Z 14010KT 05/M10 A3027 RMK A01 T00531097  RH  033%=      5-min Rain = 0
KBR1 241715Z 15010KT 05/M10 A3027 RMK A01 T00491101  RH  033%=      5-min Rain = 0
KBR1 241716Z 15009KT 05/M10 A3027 RMK A01 T00481099  RH  033%=      5-min Rain = 0
KBR1 241717Z 16008KT 05/M10 A3027 RMK A01 T00481097  RH  034%=      5-min Rain = 0
KBR1 241718Z 16006KT 05/M10 A3027 RMK A01 T00491096  RH  034%=      5-min Rain = 0
KBR1 241719Z 17008KT 05/M09 A3027 RMK A01 T00511092  RH  035%=      5-min Rain = 0
KBR1 241720Z 17009KT 05/M09 A3027 RMK A01 T00541092  RH  034%=      5-min Rain = 0
KBR1 241721Z 17010KT 05/M09 A3027 RMK A01 T00531094  RH  034%=      5-min Rain = 0
KBR1 241722Z 17011KT 05/M09 A3027 RMK A01 T00531094  RH  034%=      5-min Rain = 0
KBR1 241723Z 16010KT 05/M10 A3027 RMK A01 T00531095  RH  033%=      5-min Rain = 0
KBR1 241724Z 17010KT 05/M09 A3027 RMK A01 T00531094  RH  034%=      5-min Rain = 0
KBR1 241725Z 17009KT 05/M09 A3027 RMK A01 T00541092  RH  034%=      5-min Rain = 0
KBR1 241726Z 15010KT 06/M09 A3027 RMK A01 T00551092  RH  034%=      5-min Rain = 0
KBR1 241727Z 15011KT 06/M09 A3027 RMK A01 T00571088  RH  034%=      5-min Rain = 0
KBR1 241728Z 15009KT 06/M09 A3027 RMK A01 T00571091  RH  033%=      5-min Rain = 0
KBR1 241729Z 15011KT 06/M09 A3027 RMK A01 T00561093  RH  033%=      5-min Rain = 0
KBR1 241730Z 15011KT 06/M09 A3027 RMK A01 T00561090  RH  034%=      5-min Rain = 0
KBR1 241731Z 17009G14KT 06/M09 A3026 RMK A01 T00571091  RH  034%=      5-min Rain = 0
KBR1 241732Z 18010KT 06/M09 A3026 RMK A01 T00581089  RH  034%=      5-min Rain = 0
KBR1 241733Z 17011KT 06/M09 A3026 RMK A01 T00581091  RH  033%=      5-min Rain = 0
KBR1 241734Z 17009KT 06/M09 A3026 RMK A01 T00551093  RH  033%=      5-min Rain = 0
KBR1 241735Z 17009KT 06/M09 A3026 RMK A01 T00571089  RH  034%=      5-min Rain = 0
KBR1 241736Z 18010KT 06/M09 A3026 RMK A01 T00581090  RH  034%=      5-min Rain = 0
KBR1 241737Z 19009KT 06/M09 A3026 RMK A01 T00581090  RH  034%=      5-min Rain = 0
KBR1 241738Z 18012KT 06/M09 A3026 RMK A01 T00621086  RH  034%=      5-min Rain = 0
KBR1 241739Z 17010KT 06/M09 A3026 RMK A01 T00631088  RH  033%=      5-min Rain = 0
KBR1 241740Z 15011KT 06/M09 A3026 RMK A01 T00621090  RH  033%=      5-min Rain = 0
KBR1 241741Z 15010KT 06/M09 A3026 RMK A01 T00611090  RH  033%=      5-min Rain = 0
KBR1 241742Z 16009G14KT 06/M09 A3026 RMK A01 T00631086  RH  034%=      5-min Rain = 0
KBR1 241743Z 17010KT 07/M09 A3026 RMK A01 T00661086  RH  033%=      5-min Rain = 0
KBR1 241744Z 17011KT 07/M09 A3026 RMK A01 T00661088  RH  032%=      5-min Rain = 0
KBR1 241745Z 16012KT 07/M09 A3026 RMK A01 T00651091  RH  032%=      5-min Rain = 0
KBR1 241746Z 15013G19KT 07/M09 A3026 RMK A01 T00651087  RH  033%=      5-min Rain = 0
KBR1 241747Z 14013KT 07/M09 A3026 RMK A01 T00681086  RH  032%=      5-min Rain = 0
KBR1 241748Z 15010KT 07/M09 A3026 RMK A01 T00661090  RH  032%=      5-min Rain = 0
KBR1 241749Z 13011KT 07/M09 A3025 RMK A01 T00671087  RH  032%=      5-min Rain = 0
KBR1 241750Z 14010KT 07/M09 A3025 RMK A01 T00671088  RH  032%=      5-min Rain = 0
KBR1 241751Z 16010KT 07/M09 A3025 RMK A01 T00671086  RH  033%=      5-min Rain = 0
KBR1 241752Z 17013KT 07/M09 A3025 RMK A01 T00711085  RH  032%=      5-min Rain = 0
KBR1 241753Z 16011KT 07/M09 A3025 RMK A01 T00701088  RH  031%=      5-min Rain = 0
KBR1 241754Z 17009KT 07/M09 A3025 RMK A01 T00711087  RH  031%=      5-min Rain = 0
KBR1 241755Z 16012G17KT 07/M09 A3025 RMK A01 T00721086  RH  032%=      5-min Rain = 0
KBR1 241756Z 15014KT 07/M09 A3025 RMK A01 T00731087  RH  031%=      5-min Rain = 0
KBR1 241757Z 16011KT 07/M09 A3025 RMK A01 T00711089  RH  031%=      5-min Rain = 0
KBR1 241758Z 15012KT 07/M09 A3025 RMK A01 T00701088  RH  031%=      5-min Rain = 0
KBR1 241759Z 15011G16KT 07/M09 A3025 RMK A01 T00711086  RH  032%=      5-min Rain = 0
KBR1 241800Z 15008KT 07/M09 A3025 RMK A01 T00721089  RH  031%=      5-min Rain = 0
KBR1 241801Z 18007KT 07/M09 A3025 RMK A01 T00721086  RH  032%=      5-min Rain = 0
KBR1 241802Z 20008KT 07/M09 A3024 RMK A01 T00741086  RH  031%=      5-min Rain = 0
KBR1 241803Z 17011KT 08/M08 A3024 RMK A01 T00751084  RH  031%=      5-min Rain = 0
KBR1 241804Z 18014KT 08/M09 A3024 RMK A01 T00761088  RH  030%=      5-min Rain = 0
KBR1 241805Z 19012KT 08/M09 A3024 RMK A01 T00761090  RH  030%=      5-min Rain = 0
KBR1 241806Z 18009KT 08/M09 A3024 RMK A01 T00751091  RH  030%=      5-min Rain = 0
KBR1 241807Z 19008KT 08/M09 A3024 RMK A01 T00781085  RH  030%=      5-min Rain = 0
KBR1 241808Z 18009KT 08/M09 A3024 RMK A01 T00801086  RH  030%=      5-min Rain = 0
KBR1 241809Z 18013KT 08/M08 A3024 RMK A01 T00821084  RH  030%=      5-min Rain = 0
KBR1 241810Z 18013KT 08/M09 A3024 RMK A01 T00801088  RH  029%=      5-min Rain = 0
KBR1 241811Z 17013KT 08/M09 A3024 RMK A01 T00811086  RH  030%=      5-min Rain = 0
KBR1 241812Z 16012KT 08/M09 A3024 RMK A01 T00821088  RH  029%=      5-min Rain = 0
KBR1 241813Z 17012KT 08/M09 A3024 RMK A01 T00791091  RH  029%=      5-min Rain = 0
KBR1 241814Z 16012KT 08/M09 A3024 RMK A01 T00771091  RH  029%=      5-min Rain = 0
KBR1 241815Z 19011KT 08/M09 A3024 RMK A01 T00761090  RH  030%=      5-min Rain = 0
KBR1 241816Z 19009KT 08/M09 A3024 RMK A01 T00761089  RH  030%=      5-min Rain = 0
KBR1 241817Z 19009KT 08/M09 A3024 RMK A01 T00781087  RH  030%=      5-min Rain = 0
KBR1 241818Z 16008G14KT 08/M08 A3024 RMK A01 T00811082  RH  030%=      5-min Rain = 0
KBR1 241819Z 16014KT 09/M08 A3023 RMK A01 T00871079  RH  030%=      5-min Rain = 0
KBR1 241820Z 14011KT 09/M08 A3023 RMK A01 T00851084  RH  029%=      5-min Rain = 0
KBR1 241821Z 16012KT 08/M08 A3023 RMK A01 T00841084  RH  030%=      5-min Rain = 0
KBR1 241822Z 18013KT 09/M08 A3023 RMK A01 T00861082  RH  030%=      5-min Rain = 0
KBR1 241823Z 18011KT 09/M09 A3023 RMK A01 T00851086  RH  029%=      5-min Rain = 0
KBR1 241824Z 17008KT 08/M09 A3023 RMK A01 T00811088  RH  029%=      5-min Rain = 0
KBR1 241825Z 16012KT 08/M08 A3023 RMK A01 T00831083  RH  030%=      5-min Rain = 0
KBR1 241826Z 15013KT 09/M08 A3023 RMK A01 T00881080  RH  030%=      5-min Rain = 0
KBR1 241827Z 15013KT 09/M09 A3023 RMK A01 T00871085  RH  029%=      5-min Rain = 0
KBR1 241828Z 16014KT 09/M09 A3023 RMK A01 T00851086  RH  029%=      5-min Rain = 0
KBR1 241829Z 16012KT 09/M08 A3023 RMK A01 T00861082  RH  030%=      5-min Rain = 0
KBR1 241830Z 16012KT 09/M08 A3023 RMK A01 T00901079  RH  029%=      5-min Rain = 0
KBR1 241831Z 18013KT 09/M08 A3023 RMK A01 T00891081  RH  029%=      5-min Rain = 0
KBR1 241832Z 18012KT 09/M08 A3023 RMK A01 T00901081  RH  029%=      5-min Rain = 0
KBR1 241833Z 18012KT 09/M08 A3023 RMK A01 T00891084  RH  029%=      5-min Rain = 0
KBR1 241834Z 19016KT 09/M09 A3023 RMK A01 T00861087  RH  028%=      5-min Rain = 0
KBR1 241835Z 18014KT 09/M08 A3023 RMK A01 T00881083  RH  029%=      5-min Rain = 0
KBR1 241836Z 18015KT 09/M08 A3023 RMK A01 T00881084  RH  029%=      5-min Rain = 0
KBR1 241837Z 18013KT 09/M08 A3022 RMK A01 T00871082  RH  029%=      5-min Rain = 0
KBR1 241838Z 18012G18KT 09/M08 A3022 RMK A01 T00881079  RH  030%=      5-min Rain = 0
KBR1 241839Z 18014KT 09/M08 A3022 RMK A01 T00921077  RH  029%=      5-min Rain = 0
KBR1 241840Z 19010KT 09/M08 A3022 RMK A01 T00891083  RH  029%=      5-min Rain = 0
KBR1 241841Z 18009KT 09/M08 A3022 RMK A01 T00891080  RH  030%=      5-min Rain = 0
KBR1 241842Z 18011KT 09/M08 A3022 RMK A01 T00911079  RH  029%=      5-min Rain = 0
KBR1 241843Z 18010KT 09/M08 A3022 RMK A01 T00921078  RH  029%=      5-min Rain = 0
KBR1 241844Z 17012KT 09/M08 A3022 RMK A01 T00891082  RH  029%=      5-min Rain = 0
KBR1 241845Z 16014KT 09/M09 A3022 RMK A01 T00891085  RH  028%=      5-min Rain = 0
KBR1 241846Z 16012KT 09/M09 A3022 RMK A01 T00891088  RH  027%=      5-min Rain = 0
KBR1 241847Z 15010KT 09/M08 A3022 RMK A01 T00911084  RH  028%=      5-min Rain = 0
KBR1 241848Z 16009KT 09/M08 A3022 RMK A01 T00921083  RH  028%=      5-min Rain = 0
KBR1 241849Z 16014KT 10/M08 A3022 RMK A01 T00951080  RH  028%=      5-min Rain = 0
KBR1 241850Z 17012KT 10/M08 A3022 RMK A01 T00961081  RH  028%=      5-min Rain = 0
KBR1 241851Z 17012KT 10/M08 A3022 RMK A01 T00991078  RH  028%=      5-min Rain = 0
KBR1 241852Z 17012KT 10/M08 A3022 RMK A01 T00981082  RH  027%=      5-min Rain = 0
KBR1 241853Z 16011KT 10/M08 A3021 RMK A01 T00951083  RH  027%=      5-min Rain = 0
KBR1 241854Z 17011KT 09/M09 A3021 RMK A01 T00931085  RH  028%=      5-min Rain = 0
KBR1 241855Z 18011KT 09/M08 A3021 RMK A01 T00931084  RH  028%=      5-min Rain = 0
KBR1 241856Z 18012KT 10/M08 A3021 RMK A01 T01001078  RH  028%=      5-min Rain = 0
KBR1 241857Z 18013KT 10/M08 A3021 RMK A01 T01021083  RH  026%=      5-min Rain = 0
KBR1 241858Z 18013KT 10/M09 A3021 RMK A01 T00991087  RH  026%=      5-min Rain = 0
KBR1 241859Z 18012KT 10/M09 A3021 RMK A01 T00981085  RH  027%=      5-min Rain = 0
KBR1 241900Z 17010KT 10/M09 A3021 RMK A01 T00981085  RH  027%=      5-min Rain = 0
KBR1 241901Z 18014KT 10/M08 A3021 RMK A01 T00981084  RH  027%=      5-min Rain = 0
KBR1 241902Z 18013KT 10/M09 A3021 RMK A01 T00961090  RH  026%=      5-min Rain = 0
KBR1 241903Z 19015KT 10/M09 A3021 RMK A01 T00961088  RH  026%=      5-min Rain = 0
KBR1 241904Z 19016KT 10/M08 A3021 RMK A01 T01001084  RH  027%=      5-min Rain = 0
KBR1 241905Z 18012KT 10/M09 A3021 RMK A01 T01001088  RH  026%=      5-min Rain = 0
KBR1 241906Z 18011G16KT 10/M09 A3021 RMK A01 T00991089  RH  026%=      5-min Rain = 0
KBR1 241907Z 17013KT 10/M09 A3021 RMK A01 T01001085  RH  026%=      5-min Rain = 0
KBR1 241908Z 18011KT 10/M09 A3021 RMK A01 T00991087  RH  026%=      5-min Rain = 0
KBR1 241909Z 17011KT 10/M09 A302 RMK A01 T01001085  RH  026%=      5-min Rain = 0
KBR1 241910Z 18016KT 10/M09 A302 RMK A01 T01021085  RH  026%=      5-min Rain = 0
KBR1 241911Z 18015KT 10/M09 A302 RMK A01 T01031088  RH  025%=      5-min Rain = 0
KBR1 241912Z 18014KT 10/M09 A302 RMK A01 T01031088  RH  025%=      5-min Rain = 0
KBR1 241913Z 17013KT 11/M08 A302 RMK A01 T01051084  RH  026%=      5-min Rain = 0
KBR1 241914Z 18012KT 11/M09 A302 RMK A01 T01051086  RH  025%=      5-min Rain = 0
KBR1 241915Z 17009KT 11/M09 A302 RMK A01 T01051086  RH  025%=      5-min Rain = 0
KBR1 241916Z 18010G15KT 10/M09 A302 RMK A01 T01041089  RH  025%=      5-min Rain = 0
KBR1 241917Z 17015KT 10/M09 A3019 RMK A01 T01041088  RH  025%=      5-min Rain = 0
KBR1 241918Z 17014KT 10/M09 A302 RMK A01 T01031089  RH  025%=      5-min Rain = 0
KBR1 241919Z 16009KT 10/M09 A302 RMK A01 T01001090  RH  025%=      5-min Rain = 0
KBR1 241920Z 17011KT 10/M09 A3019 RMK A01 T01031085  RH  026%=      5-min Rain = 0
KBR1 241921Z 18015KT 11/M08 A3019 RMK A01 T01101079  RH  026%=      5-min Rain = 0
KBR1 241922Z 18014KT 11/M08 A3019 RMK A01 T01111082  RH  025%=      5-min Rain = 0
KBR1 241923Z 17011KT 11/M09 A3019 RMK A01 T01101085  RH  025%=      5-min Rain = 0
KBR1 241924Z 17009KT 11/M08 A3019 RMK A01 T01091083  RH  025%=      5-min Rain = 0
KBR1 241925Z 18010KT 11/M08 A3019 RMK A01 T01091083  RH  025%=      5-min Rain = 0
KBR1 241926Z 18011KT 11/M08 A3019 RMK A01 T01111082  RH  025%=      5-min Rain = 0
KBR1 241927Z 18011KT 11/M08 A3019 RMK A01 T01121084  RH  024%=      5-min Rain = 0
KBR1 241928Z 16011KT 11/M09 A3019 RMK A01 T01121089  RH  024%=      5-min Rain = 0
KBR1 241929Z 16009KT 11/M09 A3019 RMK A01 T01111090  RH  024%=      5-min Rain = 0
KBR1 241930Z 17012KT 11/M09 A3019 RMK A01 T01111088  RH  024%=      5-min Rain = 0
KBR1 241931Z 18015KT 11/M09 A3018 RMK A01 T01141085  RH  024%=      5-min Rain = 0
KBR1 241932Z 19015KT 12/M09 A3018 RMK A01 T01171085  RH  023%=      5-min Rain = 0
KBR1 241933Z 20014KT 11/M09 A3018 RMK A01 T01141089  RH  023%=      5-min Rain = 0
KBR1 241934Z 19009KT 11/M09 A3018 RMK A01 T01121091  RH  023%=      5-min Rain = 0
KBR1 241935Z 17012KT 11/M09 A3018 RMK A01 T01081091  RH  024%=      5-min Rain = 0
KBR1 241936Z 16011KT 11/M09 A3018 RMK A01 T01101092  RH  023%=      5-min Rain = 0
KBR1 241937Z 16011KT 11/M09 A3018 RMK A01 T01101092  RH  023%=      5-min Rain = 0
KBR1 241938Z 18015KT 11/M09 A3017 RMK A01 T01141088  RH  023%=      5-min Rain = 0
KBR1 241939Z 19013KT 12/M09 A3018 RMK A01 T01161092  RH  022%=      5-min Rain = 0
KBR1 241940Z 20012G18KT 11/M10 A3017 RMK A01 T01131097  RH  022%=      5-min Rain = 0
KBR1 241941Z 21016KT 12/M10 A3017 RMK A01 T01151100  RH  021%=      5-min Rain = 0
KBR1 241942Z 21015KT 12/M11 A3017 RMK A01 T01151107  RH  020%=      5-min Rain = 0
KBR1 241943Z 21013KT 12/M11 A3017 RMK A01 T01151106  RH  020%=      5-min Rain = 0
KBR1 241944Z 21013KT 12/M10 A3017 RMK A01 T01151103  RH  021%=      5-min Rain = 0
KBR1 241945Z 20012KT 12/M10 A3017 RMK A01 T01181098  RH  021%=      5-min Rain = 0
KBR1 241946Z 20012KT 12/M10 A3017 RMK A01 T01181100  RH  021%=      5-min Rain = 0
KBR1 241947Z 17012G17KT 12/M10 A3017 RMK A01 T01191097  RH  021%=      5-min Rain = 0
KBR1 241948Z 19012G18KT 12/M10 A3017 RMK A01 T01191098  RH  021%=      5-min Rain = 0
KBR1 241949Z 19015KT 12/M10 A3016 RMK A01 T01201099  RH  021%=      5-min Rain = 0
KBR1 241950Z 19014KT 12/M10 A3016 RMK A01 T01181102  RH  020%=      5-min Rain = 0
KBR1 241951Z 18014KT 12/M10 A3016 RMK A01 T01161103  RH  021%=      5-min Rain = 0
KBR1 241952Z 18012KT 12/M10 A3016 RMK A01 T01161104  RH  020%=      5-min Rain = 0
KBR1 241953Z 19010KT 12/M11 A3016 RMK A01 T01151105  RH  020%=      5-min Rain = 0
KBR1 241954Z 20009G14KT 11/M10 A3016 RMK A01 T01141104  RH  021%=      5-min Rain = 0
KBR1 241955Z 20016KT 12/M10 A3016 RMK A01 T01181101  RH  021%=      5-min Rain = 0
KBR1 241956Z 21014KT 12/M10 A3016 RMK A01 T01201104  RH  020%=      5-min Rain = 0
KBR1 241957Z 20011KT 12/M11 A3016 RMK A01 T01201110  RH  019%=      5-min Rain = 0
KBR1 241958Z 19010G15KT 12/M11 A3015 RMK A01 T01191106  RH  020%=      5-min Rain = 0
KBR1 241959Z 18013KT 12/M10 A3015 RMK A01 T01221101  RH  020%=      5-min Rain = 0
KBR1 242000Z 18011KT 12/M10 A3015 RMK A01 T01241101  RH  020%=      5-min Rain = 0
KBR1 242001Z 18011KT 12/M10 A3015 RMK A01 T01221102  RH  020%=      5-min Rain = 0
KBR1 242002Z 18010KT 12/M10 A3015 RMK A01 T01221101  RH  020%=      5-min Rain = 0
KBR1 242003Z 19011KT 12/M10 A3015 RMK A01 T01221102  RH  020%=      5-min Rain = 0
KBR1 242004Z 18012KT 12/M10 A3015 RMK A01 T01211102  RH  020%=      5-min Rain = 0
KBR1 242005Z 19011G16KT 12/M10 A3015 RMK A01 T01231101  RH  020%=      5-min Rain = 0
KBR1 242006Z 20013KT 13/M10 A3015 RMK A01 T01261104  RH  019%=      5-min Rain = 0
KBR1 242007Z 20013KT 13/M11 A3015 RMK A01 T01251105  RH  019%=      5-min Rain = 0
KBR1 242008Z 19012KT 12/M10 A3015 RMK A01 T01241104  RH  019%=      5-min Rain = 0
KBR1 242009Z 18010KT 12/M10 A3015 RMK A01 T01231103  RH  020%=      5-min Rain = 0
KBR1 242010Z 19009KT 12/M10 A3014 RMK A01 T01221103  RH  020%=      5-min Rain = 0
KBR1 242011Z 17011KT 12/M10 A3014 RMK A01 T01241102  RH  020%=      5-min Rain = 0
KBR1 242012Z 20014KT 13/M10 A3014 RMK A01 T01291102  RH  019%=      5-min Rain = 0
KBR1 242013Z 20013KT 13/M11 A3014 RMK A01 T01291107  RH  018%=      5-min Rain = 0
KBR1 242014Z 20013KT 13/M11 A3014 RMK A01 T01291106  RH  018%=      5-min Rain = 0
KBR1 242015Z 21013KT 13/M11 A3014 RMK A01 T01301110  RH  018%=      5-min Rain = 0
KBR1 242016Z 19014KT 13/M11 A3014 RMK A01 T01301113  RH  017%=      5-min Rain = 0
KBR1 242017Z 18014KT 13/M12 A3014 RMK A01 T01281115  RH  017%=      5-min Rain = 0
KBR1 242018Z 20014KT 13/M11 A3014 RMK A01 T01271111  RH  018%=      5-min Rain = 0
KBR1 242019Z 21013KT 13/M11 A3014 RMK A01 T01251114  RH  018%=      5-min Rain = 0
KBR1 242020Z 20010KT 12/M11 A3014 RMK A01 T01231111  RH  018%=      5-min Rain = 0
KBR1 242021Z 18012KT 13/M11 A3014 RMK A01 T01271106  RH  019%=      5-min Rain = 0
KBR1 242022Z 21010KT 13/M11 A3014 RMK A01 T01271107  RH  018%=      5-min Rain = 0
KBR1 242023Z 21013KT 13/M10 A3014 RMK A01 T01271103  RH  019%=      5-min Rain = 0
KBR1 242024Z 21012KT 13/M11 A3014 RMK A01 T01261107  RH  019%=      5-min Rain = 0
KBR1 242025Z 20008KT 12/M11 A3013 RMK A01 T01231108  RH  019%=      5-min Rain = 0
KBR1 242026Z 18009KT 12/M10 A3013 RMK A01 T01231104  RH  019%=      5-min Rain = 0
KBR1 242027Z 17010G15KT 13/M10 A3013 RMK A01 T01291102  RH  019%=      5-min Rain = 0
KBR1 242028Z 20009G14KT 13/M10 A3013 RMK A01 T01321099  RH  019%=      5-min Rain = 0
KBR1 242029Z 21015KT 14/M10 A3013 RMK A01 T01351100  RH  019%=      5-min Rain = 0
KBR1 242030Z 21015KT 13/M11 A3013 RMK A01 T01341105  RH  018%=      5-min Rain = 0
KBR1 242031Z 21011KT 13/M11 A3013 RMK A01 T01291110  RH  018%=      5-min Rain = 0
KBR1 242032Z 21014KT 13/M11 A3013 RMK A01 T01271109  RH  018%=      5-min Rain = 0
KBR1 242033Z 21013G18KT 13/M11 A3013 RMK A01 T01251107  RH  019%=      5-min Rain = 0
KBR1 242034Z 21013KT 13/M11 A3013 RMK A01 T01261106  RH  019%=      5-min Rain = 0
KBR1 242035Z 22013KT 13/M11 A3013 RMK A01 T01251106  RH  019%=      5-min Rain = 0
KBR1 242036Z 22009KT 12/M11 A3013 RMK A01 T01231108  RH  019%=      5-min Rain = 0
KBR1 242037Z 22009KT 12/M11 A3013 RMK A01 T01211109  RH  019%=      5-min Rain = 0
KBR1 242038Z 22011KT 12/M11 A3013 RMK A01 T01211106  RH  019%=      5-min Rain = 0
KBR1 242039Z 21013KT 12/M11 A3013 RMK A01 T01221105  RH  019%=      5-min Rain = 0
KBR1 242040Z 20011KT 12/M11 A3013 RMK A01 T01211108  RH  019%=      5-min Rain = 0
KBR1 242041Z 21011KT 12/M11 A3013 RMK A01 T01211107  RH  019%=      5-min Rain = 0
KBR1 242042Z 20011KT 12/M11 A3013 RMK A01 T01211105  RH  019%=      5-min Rain = 0
KBR1 242043Z 21012KT 12/M10 A3013 RMK A01 T01231102  RH  020%=      5-min Rain = 0
KBR1 242044Z 21014KT 12/M10 A3013 RMK A01 T01241103  RH  019%=      5-min Rain = 0
KBR1 242045Z 20012KT 12/M10 A3013 RMK A01 T01241104  RH  019%=      5-min Rain = 0
KBR1 242046Z 20012KT 12/M10 A3013 RMK A01 T01241103  RH  019%=      5-min Rain = 0
KBR1 242047Z 19011KT 12/M11 A3012 RMK A01 T01231105  RH  019%=      5-min Rain = 0
KBR1 242048Z 19010KT 12/M10 A3013 RMK A01 T01231104  RH  019%=      5-min Rain = 0
KBR1 242049Z 17010KT 12/M10 A3012 RMK A01 T01231103  RH  020%=      5-min Rain = 0
KBR1 242050Z 17011KT 13/M10 A3012 RMK A01 T01251100  RH  020%=      5-min Rain = 0
KBR1 242051Z 16009KT 13/M10 A3012 RMK A01 T01251101  RH  020%=      5-min Rain = 0
KBR1 242052Z 16010KT 13/M10 A3012 RMK A01 T01261102  RH  019%=      5-min Rain = 0
KBR1 242053Z 15010KT 13/M10 A3012 RMK A01 T01261102  RH  019%=      5-min Rain = 0
KBR1 242054Z 17008KT 13/M10 A3012 RMK A01 T01271102  RH  019%=      5-min Rain = 0
KBR1 242055Z 18007KT 13/M10 A3012 RMK A01 T01291097  RH  020%=      5-min Rain = 0
KBR1 242056Z 18008KT 13/M10 A3012 RMK A01 T01321098  RH  019%=      5-min Rain = 0
KBR1 242057Z 20007KT 13/M10 A3012 RMK A01 T01331096  RH  019%=      5-min Rain = 0
KBR1 242058Z 18010KT 14/M10 A3012 RMK A01 T01351096  RH  019%=      5-min Rain = 0
KBR1 242059Z 17015KT 14/M10 A3012 RMK A01 T01361095  RH  019%=      5-min Rain = 0
KBR1 242100Z 17014KT 14/M10 A3012 RMK A01 T01371096  RH  019%=      5-min Rain = 0
KBR1 242101Z 17014KT 14/M10 A3012 RMK A01 T01361100  RH  018%=      5-min Rain = 0
KBR1 242102Z 17013KT 14/M10 A3012 RMK A01 T01351099  RH  019%=      5-min Rain = 0
KBR1 242103Z 17012KT 13/M10 A3012 RMK A01 T01341099  RH  019%=      5-min Rain = 0
KBR1 242104Z 18012G17KT 13/M10 A3012 RMK A01 T01341099  RH  019%=      5-min Rain = 0
KBR1 242105Z 19014KT 13/M10 A3012 RMK A01 T01341098  RH  019%=      5-min Rain = 0
KBR1 242106Z 20013KT 13/M10 A3011 RMK A01 T01341099  RH  019%=      5-min Rain = 0
KBR1 242107Z 19012KT 13/M10 A3011 RMK A01 T01341097  RH  019%=      5-min Rain = 0
KBR1 242108Z 18011KT 13/M10 A3011 RMK A01 T01341098  RH  019%=      5-min Rain = 0
KBR1 242109Z 18010KT 14/M10 A3011 RMK A01 T01351095  RH  019%=      5-min Rain = 0
KBR1 242110Z 18009KT 14/M10 A3011 RMK A01 T01351097  RH  019%=      5-min Rain = 0
KBR1 242111Z 18010KT 14/M10 A3011 RMK A01 T01351097  RH  019%=      5-min Rain = 0
KBR1 242112Z 19008KT 14/M10 A3011 RMK A01 T01351098  RH  019%=      5-min Rain = 0
KBR1 242113Z 19012KT 14/M09 A3011 RMK A01 T01371094  RH  019%=      5-min Rain = 0
KBR1 242114Z 19012KT 14/M10 A3011 RMK A01 T01391097  RH  018%=      5-min Rain = 0
KBR1 242115Z 19013KT 14/M10 A3011 RMK A01 T01391099  RH  018%=      5-min Rain = 0
KBR1 242116Z 20013KT 14/M10 A3011 RMK A01 T01391100  RH  018%=      5-min Rain = 0
KBR1 242117Z 20014KT 14/M10 A3011 RMK A01 T01391100  RH  018%=      5-min Rain = 0
KBR1 242118Z 19017KT 14/M10 A3011 RMK A01 T01401098  RH  018%=      5-min Rain = 0
KBR1 242119Z 19014G19KT 14/M10 A3011 RMK A01 T01411100  RH  018%=      5-min Rain = 0
KBR1 242120Z 20013KT 14/M10 A3011 RMK A01 T01391103  RH  018%=      5-min Rain = 0
KBR1 242121Z 18012KT 14/M10 A3011 RMK A01 T01381102  RH  018%=      5-min Rain = 0
KBR1 242122Z 19011KT 14/M10 A3011 RMK A01 T01371102  RH  018%=      5-min Rain = 0
KBR1 242123Z 19010KT 14/M10 A3011 RMK A01 T01371100  RH  018%=      5-min Rain = 0
KBR1 242124Z 18012KT 14/M10 A3011 RMK A01 T01381098  RH  018%=      5-min Rain = 0
KBR1 242125Z 17013KT 14/M10 A3011 RMK A01 T01391098  RH  018%=      5-min Rain = 0
KBR1 242126Z 18013KT 14/M10 A301 RMK A01 T01411096  RH  018%=      5-min Rain = 0
KBR1 242127Z 18013KT 14/M10 A301 RMK A01 T01421097  RH  018%=      5-min Rain = 0
KBR1 242128Z 16012KT 14/M10 A301 RMK A01 T01411098  RH  018%=      5-min Rain = 0
KBR1 242129Z 16012KT 14/M10 A301 RMK A01 T01401099  RH  018%=      5-min Rain = 0
KBR1 242130Z 16012KT 14/M10 A301 RMK A01 T01381100  RH  018%=      5-min Rain = 0
KBR1 242131Z 16010KT 14/M10 A301 RMK A01 T01381100  RH  018%=      5-min Rain = 0
KBR1 242132Z 16009KT 14/M10 A301 RMK A01 T01381099  RH  018%=      5-min Rain = 0
KBR1 242133Z 16011KT 14/M10 A301 RMK A01 T01391097  RH  019%=      5-min Rain = 0
KBR1 242134Z 15010KT 14/M10 A301 RMK A01 T01391099  RH  018%=      5-min Rain = 0
KBR1 242135Z 16012KT 14/M10 A301 RMK A01 T01381098  RH  018%=      5-min Rain = 0
KBR1 242136Z 16011KT 14/M10 A301 RMK A01 T01401096  RH  018%=      5-min Rain = 0
KBR1 242137Z 15008KT 14/M10 A301 RMK A01 T01401098  RH  018%=      5-min Rain = 0
KBR1 242138Z 15010KT 14/M10 A301 RMK A01 T01411096  RH  018%=      5-min Rain = 0
KBR1 242139Z 16014G22KT 14/M10 A3009 RMK A01 T01431097  RH  018%=      5-min Rain = 0
KBR1 242140Z 18019G24KT 15/M10 A3009 RMK A01 T01471101  RH  017%=      5-min Rain = 0
KBR1 242141Z 18017KT 15/M11 A3009 RMK A01 T01521106  RH  016%=      5-min Rain = 0
KBR1 242142Z 20018G23KT 15/M11 A3009 RMK A01 T01511106  RH  016%=      5-min Rain = 0
KBR1 242143Z 22020KT 15/M10 A3009 RMK A01 T01521100  RH  017%=      5-min Rain = 0
KBR1 242144Z 22019KT 15/M11 A3009 RMK A01 T01511105  RH  016%=      5-min Rain = 0
KBR1 242145Z 22016KT 15/M11 A3009 RMK A01 T01481110  RH  016%=      5-min Rain = 0
KBR1 242146Z 22013KT 15/M11 A3009 RMK A01 T01471109  RH  016%=      5-min Rain = 0
KBR1 242147Z 23015KT 15/M11 A3009 RMK A01 T01471105  RH  016%=      5-min Rain = 0
KBR1 242148Z 22016KT 15/M10 A3009 RMK A01 T01461103  RH  017%=      5-min Rain = 0
KBR1 242149Z 23014KT 15/M10 A3009 RMK A01 T01451099  RH  018%=      5-min Rain = 0
KBR1 242150Z 24014KT 15/M09 A3009 RMK A01 T01451094  RH  018%=      5-min Rain = 0
KBR1 242151Z 23014KT 15/M09 A3009 RMK A01 T01461094  RH  018%=      5-min Rain = 0
KBR1 242152Z 23014KT 15/M10 A3009 RMK A01 T01471097  RH  018%=      5-min Rain = 0
KBR1 242153Z 23013KT 15/M11 A3009 RMK A01 T01471105  RH  017%=      5-min Rain = 0
KBR1 242154Z 21019G25KT 15/M11 A3009 RMK A01 T01471105  RH  017%=      5-min Rain = 0
KBR1 242155Z 21025KT 15/M12 A3009 RMK A01 T01481118  RH  015%=      5-min Rain = 0
KBR1 242156Z 19022KT 15/M12 A3009 RMK A01 T01481122  RH  014%=      5-min Rain = 0
KBR1 242157Z 19020KT 15/M12 A3009 RMK A01 T01481121  RH  014%=      5-min Rain = 0
KBR1 242158Z 20020KT 15/M12 A3009 RMK A01 T01491120  RH  014%=      5-min Rain = 0
KBR1 242159Z 21018KT 15/M12 A3009 RMK A01 T01511119  RH  014%=      5-min Rain = 0
KBR1 242200Z 21019KT 15/M13 A3009 RMK A01 T01501125  RH  014%=      5-min Rain = 0
KBR1 242201Z 22018G24KT 15/M13 A3009 RMK A01 T01481128  RH  014%=      5-min Rain = 0
KBR1 242202Z 20016KT 15/M13 A3009 RMK A01 T01481126  RH  014%=      5-min Rain = 0
KBR1 242203Z 19020KT 15/M13 A3009 RMK A01 T01501125  RH  014%=      5-min Rain = 0
KBR1 242204Z 20019G24KT 15/M13 A3009 RMK A01 T01491130  RH  013%=      5-min Rain = 0
KBR1 242205Z 20020KT 15/M13 A3009 RMK A01 T01481131  RH  013%=      5-min Rain = 0
KBR1 242206Z 18017KT 15/M13 A3009 RMK A01 T01461130  RH  014%=      5-min Rain = 0
KBR1 242207Z 20017KT 15/M13 A3009 RMK A01 T01461126  RH  014%=      5-min Rain = 0
KBR1 242208Z 20018KT 15/M13 A3009 RMK A01 T01461126  RH  014%=      5-min Rain = 0
KBR1 242209Z 19018G23KT 15/M12 A3009 RMK A01 T01471124  RH  014%=      5-min Rain = 0
KBR1 242210Z 19019KT 15/M12 A3009 RMK A01 T01471123  RH  014%=      5-min Rain = 0
KBR1 242211Z 20017G22KT 15/M13 A3009 RMK A01 T01461126  RH  014%=      5-min Rain = 0
KBR1 242212Z 20018KT 15/M13 A3009 RMK A01 T01451129  RH  014%=      5-min Rain = 0
KBR1 242213Z 20015KT 15/M13 A3009 RMK A01 T01451133  RH  013%=      5-min Rain = 0
KBR1 242214Z 22015KT 15/M13 A3009 RMK A01 T01451129  RH  014%=      5-min Rain = 0
KBR1 242215Z 22016G21KT 15/M13 A3009 RMK A01 T01471125  RH  014%=      5-min Rain = 0
KBR1 242216Z 21017KT 15/M12 A3009 RMK A01 T01471123  RH  014%=      5-min Rain = 0
KBR1 242217Z 20014KT 15/M12 A3009 RMK A01 T01471122  RH  014%=      5-min Rain = 0
KBR1 242218Z 20019KT 15/M12 A3009 RMK A01 T01471121  RH  015%=      5-min Rain = 0
KBR1 242219Z 20020KT 15/M12 A3009 RMK A01 T01451122  RH  015%=      5-min Rain = 0
KBR1 242220Z 20019KT 14/M12 A3009 RMK A01 T01431124  RH  015%=      5-min Rain = 0
KBR1 242221Z 20018KT 14/M12 A3009 RMK A01 T01411123  RH  015%=      5-min Rain = 0
KBR1 242222Z 20017KT 14/M12 A3009 RMK A01 T01401122  RH  015%=      5-min Rain = 0
KBR1 242223Z 21017G22KT 14/M12 A3009 RMK A01 T01401120  RH  015%=      5-min Rain = 0
KBR1 242224Z 20017KT 14/M12 A3009 RMK A01 T01411119  RH  015%=      5-min Rain = 0
KBR1 242225Z 20013KT 14/M12 A3009 RMK A01 T01401118  RH  016%=      5-min Rain = 0
KBR1 242226Z 20018KT 14/M12 A3009 RMK A01 T01411117  RH  016%=      5-min Rain = 0
KBR1 242227Z 19018KT 14/M12 A3009 RMK A01 T01411118  RH  016%=      5-min Rain = 0
KBR1 242228Z 19021KT 14/M12 A3009 RMK A01 T01401116  RH  016%=      5-min Rain = 0
KBR1 242229Z 20020KT 14/M12 A3009 RMK A01 T01391117  RH  016%=      5-min Rain = 0
KBR1 242230Z 21020KT 14/M12 A3009 RMK A01 T01381117  RH  016%=      5-min Rain = 0
KBR1 242231Z 19018KT 14/M12 A3009 RMK A01 T01381117  RH  016%=      5-min Rain = 0
KBR1 242232Z 19016KT 14/M12 A3009 RMK A01 T01381116  RH  016%=      5-min Rain = 0
KBR1 242233Z 19016KT 14/M11 A3009 RMK A01 T01371114  RH  016%=      5-min Rain = 0
KBR1 242234Z 18014KT 14/M11 A3009 RMK A01 T01371114  RH  016%=      5-min Rain = 0
KBR1 242235Z 18015KT 14/M11 A3009 RMK A01 T01371114  RH  016%=      5-min Rain = 0
KBR1 242236Z 19013KT 14/M11 A3008 RMK A01 T01371113  RH  016%=      5-min Rain = 0
KBR1 242237Z 20017KT 14/M11 A3008 RMK A01 T01381112  RH  017%=      5-min Rain = 0
KBR1 242238Z 19016KT 14/M12 A3008 RMK A01 T01381116  RH  016%=      5-min Rain = 0
KBR1 242239Z 19015KT 14/M11 A3008 RMK A01 T01381114  RH  016%=      5-min Rain = 0
KBR1 242240Z 18015KT 14/M11 A3008 RMK A01 T01381112  RH  017%=      5-min Rain = 0
KBR1 242241Z 19014KT 14/M11 A3008 RMK A01 T01381112  RH  016%=      5-min Rain = 0
KBR1 242242Z 19016KT 14/M11 A3008 RMK A01 T01381112  RH  017%=      5-min Rain = 0
KBR1 242243Z 18015KT 14/M12 A3008 RMK A01 T01361115  RH  016%=      5-min Rain = 0
KBR1 242244Z 18015KT 14/M11 A3008 RMK A01 T01361114  RH  017%=      5-min Rain = 0
KBR1 242245Z 18014KT 14/M11 A3008 RMK A01 T01351114  RH  017%=      5-min Rain = 0
KBR1 242246Z 18011KT 14/M11 A3009 RMK A01 T01351113  RH  017%=      5-min Rain = 0
KBR1 242247Z 19016KT 14/M11 A3008 RMK A01 T01351112  RH  017%=      5-min Rain = 0
KBR1 242248Z 18016KT 14/M11 A3008 RMK A01 T01351113  RH  017%=      5-min Rain = 0
KBR1 242249Z 19019G24KT 14/M11 A3008 RMK A01 T01351111  RH  017%=      5-min Rain = 0
KBR1 242250Z 19022KT 13/M12 A3008 RMK A01 T01341116  RH  016%=      5-min Rain = 0
KBR1 242251Z 18021KT 13/M12 A3009 RMK A01 T01331117  RH  016%=      5-min Rain = 0
KBR1 242252Z 18021KT 13/M12 A3008 RMK A01 T01321116  RH  017%=      5-min Rain = 0
KBR1 242253Z 18018KT 13/M12 A3008 RMK A01 T01321116  RH  017%=      5-min Rain = 0
KBR1 242254Z 18014KT 13/M11 A3009 RMK A01 T01321113  RH  017%=      5-min Rain = 0
KBR1 242255Z 18017KT 13/M11 A3008 RMK A01 T01321112  RH  017%=      5-min Rain = 0
KBR1 242256Z 19018KT 13/M11 A3008 RMK A01 T01321114  RH  017%=      5-min Rain = 0
KBR1 242257Z 19013KT 13/M11 A3009 RMK A01 T01311114  RH  017%=      5-min Rain = 0
KBR1 242258Z 19015G21KT 13/M11 A3009 RMK A01 T01311111  RH  017%=      5-min Rain = 0
KBR1 242259Z 19015KT 13/M11 A3009 RMK A01 T01311112  RH  017%=      5-min Rain = 0
KBR1 242300Z 19015G20KT 13/M11 A3009 RMK A01 T01311113  RH  017%=      5-min Rain = 0
KBR1 242301Z 19018KT 13/M11 A3008 RMK A01 T01311114  RH  017%=      5-min Rain = 0
KBR1 242302Z 19018KT 13/M12 A3008 RMK A01 T01311116  RH  017%=      5-min Rain = 0
KBR1 242303Z 19017KT 13/M12 A3008 RMK A01 T01311116  RH  017%=      5-min Rain = 0
KBR1 242304Z 19017KT 13/M11 A3008 RMK A01 T01311113  RH  017%=      5-min Rain = 0
KBR1 242305Z 18016KT 13/M11 A3008 RMK A01 T01311112  RH  017%=      5-min Rain = 0
KBR1 242306Z 18016KT 13/M11 A3008 RMK A01 T01311110  RH  018%=      5-min Rain = 0
KBR1 242307Z 18017KT 13/M11 A3008 RMK A01 T01301110  RH  018%=      5-min Rain = 0
KBR1 242308Z 18018KT 13/M11 A3008 RMK A01 T01291109  RH  018%=      5-min Rain = 0
KBR1 242309Z 18017KT 13/M11 A3008 RMK A01 T01281108  RH  018%=      5-min Rain = 0
KBR1 242310Z 18015KT 13/M11 A3008 RMK A01 T01281106  RH  019%=      5-min Rain = 0
KBR1 242311Z 18014KT 13/M11 A3008 RMK A01 T01271105  RH  019%=      5-min Rain = 0
KBR1 242312Z 18015KT 13/M10 A3008 RMK A01 T01271104  RH  019%=      5-min Rain = 0
KBR1 242313Z 18015KT 13/M10 A3008 RMK A01 T01271103  RH  019%=      5-min Rain = 0
KBR1 242314Z 18016KT 13/M10 A3008 RMK A01 T01261103  RH  019%=      5-min Rain = 0
KBR1 242315Z 18015KT 13/M10 A3008 RMK A01 T01261104  RH  019%=      5-min Rain = 0
KBR1 242316Z 18014KT 13/M10 A3008 RMK A01 T01261102  RH  019%=      5-min Rain = 0
KBR1 242317Z 18013KT 13/M10 A3008 RMK A01 T01251102  RH  019%=      5-min Rain = 0
KBR1 242318Z 18014G20KT 13/M10 A3008 RMK A01 T01251101  RH  020%=      5-min Rain = 0
KBR1 242319Z 18014KT 13/M10 A3008 RMK A01 T01251102  RH  019%=      5-min Rain = 0
KBR1 242320Z 19015KT 13/M10 A3008 RMK A01 T01251102  RH  019%=      5-min Rain = 0
KBR1 242321Z 19015G20KT 13/M10 A3008 RMK A01 T01251102  RH  019%=      5-min Rain = 0
KBR1 242322Z 18017KT 13/M10 A3008 RMK A01 T01261104  RH  019%=      5-min Rain = 0
KBR1 242323Z 18016KT 13/M10 A3008 RMK A01 T01261104  RH  019%=      5-min Rain = 0
KBR1 242324Z 19015KT 13/M10 A3008 RMK A01 T01251104  RH  019%=      5-min Rain = 0
KBR1 242325Z 18016KT 13/M10 A3008 RMK A01 T01261102  RH  019%=      5-min Rain = 0
KBR1 242326Z 18015KT 13/M10 A3008 RMK A01 T01251102  RH  019%=      5-min Rain = 0
KBR1 242327Z 18014KT 13/M10 A3008 RMK A01 T01251102  RH  020%=      5-min Rain = 0
KBR1 242328Z 18016KT 12/M10 A3008 RMK A01 T01241103  RH  019%=      5-min Rain = 0
KBR1 242329Z 18013KT 13/M10 A3008 RMK A01 T01251102  RH  020%=      5-min Rain = 0
KBR1 242330Z 18013KT 12/M10 A3008 RMK A01 T01241101  RH  020%=      5-min Rain = 0
KBR1 242331Z 18013KT 12/M10 A3008 RMK A01 T01241101  RH  020%=      5-min Rain = 0
KBR1 242332Z 18014KT 12/M10 A3008 RMK A01 T01241101  RH  020%=      5-min Rain = 0
KBR1 242333Z 18012KT 12/M10 A3008 RMK A01 T01241101  RH  020%=      5-min Rain = 0
KBR1 242334Z 18013KT 12/M10 A3008 RMK A01 T01231101  RH  020%=      5-min Rain = 0
KBR1 242335Z 18014KT 12/M10 A3008 RMK A01 T01231102  RH  020%=      5-min Rain = 0
KBR1 242336Z 18014KT 12/M10 A3008 RMK A01 T01231102  RH  020%=      5-min Rain = 0
KBR1 242337Z 18012KT 12/M10 A3008 RMK A01 T01231101  RH  020%=      5-min Rain = 0
KBR1 242338Z 18012KT 12/M10 A3008 RMK A01 T01231100  RH  020%=      5-min Rain = 0
KBR1 242339Z 18012KT 12/M10 A3008 RMK A01 T01221101  RH  020%=      5-min Rain = 0
KBR1 242340Z 18011KT 12/M10 A3008 RMK A01 T01211099  RH  020%=      5-min Rain = 0
KBR1 242341Z 17010KT 12/M10 A3008 RMK A01 T01211099  RH  021%=      5-min Rain = 0
KBR1 242342Z 17011KT 12/M10 A3008 RMK A01 T01201099  RH  021%=      5-min Rain = 0
KBR1 242343Z 17010KT 12/M10 A3008 RMK A01 T01201099  RH  021%=      5-min Rain = 0
KBR1 242344Z 17012KT 12/M10 A3008 RMK A01 T01201098  RH  021%=      5-min Rain = 0
KBR1 242345Z 17012KT 12/M10 A3008 RMK A01 T01201099  RH  021%=      5-min Rain = 0
KBR1 242346Z 17011KT 12/M10 A3008 RMK A01 T01201099  RH  021%=      5-min Rain = 0
KBR1 242347Z 17012KT 12/M10 A3008 RMK A01 T01201099  RH  021%=      5-min Rain = 0
KBR1 242348Z 17010KT 12/M10 A3008 RMK A01 T01191100  RH  020%=      5-min Rain = 0
KBR1 242349Z 17010KT 12/M10 A3008 RMK A01 T01191100  RH  021%=      5-min Rain = 0
KBR1 242350Z 17009KT 12/M10 A3008 RMK A01 T01191099  RH  021%=      5-min Rain = 0
KBR1 242351Z 17008KT 12/M10 A3008 RMK A01 T01181098  RH  021%=      5-min Rain = 0
KBR1 242352Z 17008KT 12/M10 A3008 RMK A01 T01181098  RH  021%=      5-min Rain = 0
KBR1 242353Z 17008KT 12/M10 A3008 RMK A01 T01171098  RH  021%=      5-min Rain = 0
KBR1 242354Z 17010KT 12/M10 A3008 RMK A01 T01171097  RH  021%=      5-min Rain = 0
KBR1 242355Z 17009KT 12/M10 A3008 RMK A01 T01171097  RH  021%=      5-min Rain = 0
KBR1 242356Z 17010KT 12/M10 A3008 RMK A01 T01171097  RH  021%=      5-min Rain = 0
KBR1 242357Z 17009KT 12/M10 A3008 RMK A01 T01171097  RH  021%=      5-min Rain = 0
KBR1 242358Z 17009KT 12/M10 A3008 RMK A01 T01171095  RH  022%=      5-min Rain = 0
KBR1 242359Z 17009KT 12/M09 A3008 RMK A01 T01151094  RH  022%=      5-min Rain = 0
KBR1 250000Z 16010KT 12/M09 A3008 RMK A01 T01151094  RH  022%=      5-min Rain = 0
KBR1 250001Z 16009KT 12/M09 A3008 RMK A01 T01151093  RH  022%=      5-min Rain = 0
KBR1 250002Z 16010KT 12/M09 A3007 RMK A01 T01151093  RH  022%=      5-min Rain = 0
KBR1 250003Z 17010KT 12/M09 A3008 RMK A01 T01151094  RH  022%=      5-min Rain = 0
KBR1 250004Z 16009KT 12/M09 A3008 RMK A01 T01151093  RH  022%=      5-min Rain = 0
KBR1 250005Z 16008KT 12/M09 A3008 RMK A01 T01151092  RH  023%=      5-min Rain = 0
KBR1 250006Z 16010KT 11/M09 A3008 RMK A01 T01141091  RH  023%=      5-min Rain = 0
KBR1 250007Z 17009KT 11/M09 A3008 RMK A01 T01141092  RH  023%=      5-min Rain = 0
KBR1 250008Z 16009KT 11/M09 A3007 RMK A01 T01141091  RH  023%=      5-min Rain = 0
KBR1 250009Z 16011KT 11/M09 A3007 RMK A01 T01141091  RH  023%=      5-min Rain = 0
KBR1 250010Z 16010KT 11/M09 A3007 RMK A01 T01141091  RH  023%=      5-min Rain = 0
KBR1 250011Z 17010KT 11/M09 A3007 RMK A01 T01141091  RH  023%=      5-min Rain = 0
KBR1 250012Z 16009KT 11/M09 A3007 RMK A01 T01131091  RH  023%=      5-min Rain = 0
KBR1 250013Z 16010KT 11/M09 A3007 RMK A01 T01131091  RH  023%=      5-min Rain = 0
KBR1 250014Z 17012KT 11/M09 A3007 RMK A01 T01131091  RH  023%=      5-min Rain = 0
KBR1 250015Z 16011KT 11/M09 A3007 RMK A01 T01141092  RH  023%=      5-min Rain = 0
KBR1 250016Z 17012KT 11/M09 A3007 RMK A01 T01141091  RH  023%=      5-min Rain = 0
KBR1 250017Z 17012KT 11/M09 A3007 RMK A01 T01141091  RH  023%=      5-min Rain = 0
KBR1 250018Z 17013KT 11/M09 A3007 RMK A01 T01141091  RH  023%=      5-min Rain = 0
KBR1 250019Z 17014KT 11/M09 A3007 RMK A01 T01141092  RH  023%=      5-min Rain = 0
KBR1 250020Z 17012KT 11/M09 A3007 RMK A01 T01141092  RH  023%=      5-min Rain = 0
KBR1 250021Z 17013KT 11/M09 A3007 RMK A01 T01141092  RH  023%=      5-min Rain = 0
KBR1 250022Z 17012KT 11/M09 A3007 RMK A01 T01141092  RH  023%=      5-min Rain = 0
KBR1 250023Z 17014KT 11/M09 A3007 RMK A01 T01141092  RH  023%=      5-min Rain = 0
KBR1 250024Z 17013KT 11/M09 A3007 RMK A01 T01141093  RH  022%=      5-min Rain = 0
KBR1 250025Z 17012KT 11/M09 A3007 RMK A01 T01141093  RH  023%=      5-min Rain = 0
KBR1 250026Z 17012KT 11/M09 A3007 RMK A01 T01141093  RH  023%=      5-min Rain = 0
KBR1 250027Z 17014KT 11/M09 A3007 RMK A01 T01131093  RH  023%=      5-min Rain = 0
KBR1 250028Z 17013KT 11/M09 A3007 RMK A01 T01131094  RH  023%=      5-min Rain = 0
KBR1 250029Z 17013KT 11/M09 A3007 RMK A01 T01131092  RH  023%=      5-min Rain = 0
KBR1 250030Z 17012KT 11/M09 A3007 RMK A01 T01121093  RH  023%=      5-min Rain = 0
KBR1 250031Z 17012KT 11/M09 A3007 RMK A01 T01111093  RH  023%=      5-min Rain = 0
KBR1 250032Z 17013KT 11/M09 A3007 RMK A01 T01101093  RH  023%=      5-min Rain = 0
KBR1 250033Z 17012KT 11/M09 A3007 RMK A01 T01101093  RH  023%=      5-min Rain = 0
KBR1 250034Z 17013KT 11/M09 A3007 RMK A01 T01091093  RH  023%=      5-min Rain = 0
KBR1 250035Z 17012KT 11/M09 A3007 RMK A01 T01101093  RH  023%=      5-min Rain = 0
KBR1 250036Z 17012KT 11/M09 A3007 RMK A01 T01091093  RH  023%=      5-min Rain = 0
KBR1 250037Z 17012KT 11/M09 A3007 RMK A01 T01081092  RH  023%=      5-min Rain = 0
KBR1 250038Z 17012KT 11/M09 A3007 RMK A01 T01071090  RH  024%=      5-min Rain = 0
KBR1 250039Z 17012KT 11/M09 A3007 RMK A01 T01061089  RH  024%=      5-min Rain = 0
KBR1 250040Z 17013KT 11/M09 A3007 RMK A01 T01051090  RH  025%=      5-min Rain = 0
KBR1 250041Z 17013KT 11/M09 A3007 RMK A01 T01051089  RH  025%=      5-min Rain = 0
KBR1 250042Z 17013KT 11/M09 A3007 RMK A01 T01051089  RH  025%=      5-min Rain = 0
KBR1 250043Z 17013KT 11/M09 A3007 RMK A01 T01051089  RH  025%=      5-min Rain = 0
KBR1 250044Z 17013KT 10/M09 A3007 RMK A01 T01041089  RH  025%=      5-min Rain = 0
KBR1 250045Z 17014KT 10/M09 A3007 RMK A01 T01041090  RH  025%=      5-min Rain = 0
KBR1 250046Z 17014KT 11/M09 A3007 RMK A01 T01051090  RH  025%=      5-min Rain = 0
KBR1 250047Z 17013KT 10/M09 A3007 RMK A01 T01041090  RH  025%=      5-min Rain = 0
KBR1 250048Z 17013KT 10/M09 A3007 RMK A01 T01041090  RH  025%=      5-min Rain = 0
KBR1 250049Z 17013KT 10/M09 A3007 RMK A01 T01041090  RH  025%=      5-min Rain = 0
KBR1 250050Z 17012KT 10/M09 A3007 RMK A01 T01041090  RH  025%=      5-min Rain = 0
KBR1 250051Z 17013KT 10/M09 A3007 RMK A01 T01031090  RH  025%=      5-min Rain = 0
KBR1 250052Z 17013KT 10/M09 A3007 RMK A01 T01021090  RH  025%=      5-min Rain = 0
KBR1 250053Z 17013KT 10/M09 A3007 RMK A01 T01021090  RH  025%=      5-min Rain = 0
KBR1 250054Z 17012KT 10/M09 A3007 RMK A01 T01021090  RH  025%=      5-min Rain = 0
KBR1 250055Z 17013KT 10/M09 A3007 RMK A01 T01021090  RH  025%=      5-min Rain = 0
KBR1 250056Z 17012KT 10/M09 A3007 RMK A01 T01011090  RH  025%=      5-min Rain = 0
KBR1 250057Z 17013KT 10/M09 A3007 RMK A01 T01011090  RH  025%=      5-min Rain = 0
KBR1 250058Z 17012KT 10/M09 A3007 RMK A01 T01011090  RH  025%=      5-min Rain = 0
KBR1 250059Z 17011KT 10/M09 A3007 RMK A01 T01011090  RH  025%=      5-min Rain = 0
KBR1 250100Z 17013KT 10/M09 A3007 RMK A01 T00991091  RH  025%=      5-min Rain = 0
KBR1 250101Z 17012KT 10/M09 A3007 RMK A01 T00991091  RH  025%=      5-min Rain = 0
KBR1 250102Z 17012KT 10/M09 A3007 RMK A01 T00991091  RH  025%=      5-min Rain = 0
KBR1 250103Z 17013KT 10/M09 A3007 RMK A01 T00991091  RH  025%=      5-min Rain = 0
KBR1 250104Z 17012KT 10/M09 A3007 RMK A01 T00981091  RH  025%=      5-min Rain = 0
KBR1 250105Z 17012KT 10/M09 A3007 RMK A01 T00981091  RH  025%=      5-min Rain = 0
KBR1 250106Z 17012KT 10/M09 A3007 RMK A01 T00971092  RH  025%=      5-min Rain = 0
KBR1 250107Z 17012KT 10/M09 A3007 RMK A01 T00971091  RH  025%=      5-min Rain = 0
KBR1 250108Z 16010KT 10/M09 A3007 RMK A01 T00961091  RH  026%=      5-min Rain = 0
KBR1 250109Z 16010KT 10/M09 A3007 RMK A01 T00951091  RH  026%=      5-min Rain = 0
KBR1 250110Z 16010KT 09/M09 A3007 RMK A01 T00931091  RH  026%=      5-min Rain = 0
KBR1 250111Z 16010KT 09/M09 A3007 RMK A01 T00921090  RH  027%=      5-min Rain = 0
KBR1 250112Z 16010KT 09/M09 A3007 RMK A01 T00911090  RH  027%=      5-min Rain = 0
KBR1 250113Z 16010KT 09/M09 A3007 RMK A01 T00891090  RH  027%=      5-min Rain = 0
KBR1 250114Z 16009KT 09/M09 A3007 RMK A01 T00891090  RH  027%=      5-min Rain = 0
KBR1 250115Z 15009KT 09/M09 A3007 RMK A01 T00871089  RH  028%=      5-min Rain = 0
KBR1 250116Z 15009KT 09/M09 A3007 RMK A01 T00861089  RH  028%=      5-min Rain = 0
KBR1 250117Z 15008KT 09/M09 A3007 RMK A01 T00851089  RH  028%=      5-min Rain = 0
KBR1 250118Z 15008KT 08/M09 A3007 RMK A01 T00831088  RH  029%=      5-min Rain = 0
KBR1 250119Z 15008KT 08/M09 A3007 RMK A01 T00811088  RH  029%=      5-min Rain = 0
KBR1 250120Z 14008KT 08/M09 A3007 RMK A01 T00801088  RH  029%=      5-min Rain = 0
KBR1 250121Z 14009KT 08/M09 A3007 RMK A01 T00791087  RH  030%=      5-min Rain = 0
KBR1 250122Z 14009KT 08/M09 A3008 RMK A01 T00781087  RH  030%=      5-min Rain = 0
KBR1 250123Z 15009KT 08/M09 A3008 RMK A01 T00781087  RH  030%=      5-min Rain = 0
KBR1 250124Z 14009KT 08/M09 A3008 RMK A01 T00781087  RH  030%=      5-min Rain = 0
KBR1 250125Z 14009KT 08/M09 A3008 RMK A01 T00791086  RH  030%=      5-min Rain = 0
KBR1 250126Z 14009KT 08/M09 A3008 RMK A01 T00791085  RH  030%=      5-min Rain = 0
KBR1 250127Z 14009KT 08/M09 A3008 RMK A01 T00791085  RH  030%=      5-min Rain = 0
KBR1 250128Z 14010KT 08/M09 A3008 RMK A01 T00781085  RH  031%=      5-min Rain = 0
KBR1 250129Z 14009KT 08/M08 A3008 RMK A01 T00791084  RH  031%=      5-min Rain = 0
KBR1 250130Z 14010KT 08/M08 A3008 RMK A01 T00791084  RH  031%=      5-min Rain = 0
KBR1 250131Z 14010KT 08/M08 A3008 RMK A01 T00781084  RH  031%=      5-min Rain = 0
KBR1 250132Z 14010KT 08/M08 A3008 RMK A01 T00781084  RH  031%=      5-min Rain = 0
KBR1 250133Z 14010KT 08/M08 A3008 RMK A01 T00781084  RH  031%=      5-min Rain = 0
KBR1 250134Z 14009KT 08/M08 A3008 RMK A01 T00771084  RH  031%=      5-min Rain = 0
KBR1 250135Z 14009KT 08/M08 A3008 RMK A01 T00771084  RH  031%=      5-min Rain = 0
KBR1 250136Z 14009KT 08/M08 A3008 RMK A01 T00761084  RH  031%=      5-min Rain = 0
KBR1 250137Z 14009KT 08/M08 A3008 RMK A01 T00761084  RH  031%=      5-min Rain = 0
KBR1 250138Z 14009KT 08/M08 A3008 RMK A01 T00751084  RH  031%=      5-min Rain = 0
KBR1 250139Z 14009KT 08/M08 A3008 RMK A01 T00751084  RH  031%=      5-min Rain = 0
KBR1 250140Z 14009KT 08/M08 A3008 RMK A01 T00751083  RH  032%=      5-min Rain = 0
KBR1 250141Z 14009KT 07/M08 A3008 RMK A01 T00741083  RH  032%=      5-min Rain = 0
KBR1 250142Z 14009KT 07/M08 A3008 RMK A01 T00731083  RH  032%=      5-min Rain = 0
KBR1 250143Z 14009KT 07/M08 A3008 RMK A01 T00731083  RH  032%=      5-min Rain = 0
KBR1 250144Z 14009KT 07/M08 A3008 RMK A01 T00741082  RH  032%=      5-min Rain = 0
KBR1 250145Z 14009KT 07/M08 A3008 RMK A01 T00731083  RH  032%=      5-min Rain = 0
KBR1 250146Z 14009KT 07/M08 A3009 RMK A01 T00731083  RH  032%=      5-min Rain = 0
KBR1 250147Z 14008KT 07/M08 A3009 RMK A01 T00721083  RH  032%=      5-min Rain = 0
KBR1 250148Z 14009KT 07/M08 A3009 RMK A01 T00711083  RH  033%=      5-min Rain = 0
KBR1 250149Z 14008KT 07/M08 A3009 RMK A01 T00711082  RH  033%=      5-min Rain = 0
KBR1 250150Z 14009KT 07/M08 A3009 RMK A01 T00711082  RH  033%=      5-min Rain = 0
KBR1 250151Z 14010KT 07/M08 A3009 RMK A01 T00711081  RH  033%=      5-min Rain = 0
KBR1 250152Z 14009KT 07/M08 A3009 RMK A01 T00721081  RH  033%=      5-min Rain = 0
KBR1 250153Z 14009KT 07/M08 A3009 RMK A01 T00721080  RH  033%=      5-min Rain = 0
KBR1 250154Z 14009KT 07/M08 A3009 RMK A01 T00721080  RH  033%=      5-min Rain = 0
KBR1 250155Z 15009KT 07/M08 A3009 RMK A01 T00721079  RH  033%=      5-min Rain = 0
KBR1 250156Z 14010KT 07/M08 A3009 RMK A01 T00741078  RH  033%=      5-min Rain = 0
KBR1 250157Z 14010KT 08/M08 A3009 RMK A01 T00751077  RH  033%=      5-min Rain = 0
KBR1 250158Z 14009KT 08/M08 A3009 RMK A01 T00761077  RH  033%=      5-min Rain = 0
KBR1 250159Z 14010KT 08/M08 A3009 RMK A01 T00761077  RH  033%=      5-min Rain = 0
KBR1 250200Z 14009KT 08/M08 A3009 RMK A01 T00761076  RH  033%=      5-min Rain = 0
KBR1 250201Z 14009KT 08/M08 A3009 RMK A01 T00761076  RH  033%=      5-min Rain = 0
KBR1 250202Z 14010KT 08/M08 A3009 RMK A01 T00751076  RH  033%=      5-min Rain = 0
KBR1 250203Z 14009KT 08/M08 A3009 RMK A01 T00751075  RH  034%=      5-min Rain = 0
KBR1 250204Z 14010KT 08/M07 A3009 RMK A01 T00751074  RH  034%=      5-min Rain = 0
KBR1 250205Z 14010KT 08/M07 A3009 RMK A01 T00751074  RH  034%=      5-min Rain = 0
KBR1 250206Z 15010KT 08/M07 A3009 RMK A01 T00751074  RH  034%=      5-min Rain = 0
KBR1 250207Z 14009KT 08/M07 A3009 RMK A01 T00751073  RH  034%=      5-min Rain = 0
KBR1 250208Z 14008KT 08/M07 A3009 RMK A01 T00761073  RH  034%=      5-min Rain = 0
KBR1 250209Z 15009KT 08/M07 A3009 RMK A01 T00751073  RH  034%=      5-min Rain = 0
KBR1 250210Z 14009KT 08/M07 A3009 RMK A01 T00751072  RH  034%=      5-min Rain = 0
KBR1 250211Z 15008KT 08/M07 A3009 RMK A01 T00751071  RH  035%=      5-min Rain = 0
KBR1 250212Z 15008KT 08/M07 A3009 RMK A01 T00751070  RH  035%=      5-min Rain = 0
KBR1 250213Z 15008KT 08/M07 A3009 RMK A01 T00751070  RH  035%=      5-min Rain = 0
KBR1 250214Z 15008KT 07/M07 A3009 RMK A01 T00741069  RH  035%=      5-min Rain = 0
KBR1 250215Z 15008KT 07/M07 A3009 RMK A01 T00741068  RH  036%=      5-min Rain = 0
KBR1 250216Z 15007KT 07/M07 A3009 RMK A01 T00741068  RH  036%=      5-min Rain = 0
KBR1 250217Z 15007KT 07/M07 A3009 RMK A01 T00731067  RH  036%=      5-min Rain = 0
KBR1 250218Z 15008KT 07/M07 A3009 RMK A01 T00731067  RH  036%=      5-min Rain = 0
KBR1 250219Z 15009KT 07/M07 A3009 RMK A01 T00731067  RH  036%=      5-min Rain = 0
KBR1 250220Z 15007KT 07/M07 A3009 RMK A01 T00731066  RH  036%=      5-min Rain = 0
KBR1 250221Z 16008KT 07/M07 A3009 RMK A01 T00731067  RH  036%=      5-min Rain = 0
KBR1 250222Z 16008KT 07/M07 A3009 RMK A01 T00721067  RH  036%=      5-min Rain = 0
KBR1 250223Z 16007KT 07/M07 A3009 RMK A01 T00731066  RH  036%=      5-min Rain = 0
KBR1 250224Z 16008KT 07/M07 A3009 RMK A01 T00731067  RH  036%=      5-min Rain = 0
KBR1 250225Z 16008KT 07/M07 A3009 RMK A01 T00731066  RH  037%=      5-min Rain = 0
KBR1 250226Z 16009KT 07/M07 A3009 RMK A01 T00721067  RH  037%=      5-min Rain = 0
KBR1 250227Z 16008KT 07/M07 A3009 RMK A01 T00721066  RH  037%=      5-min Rain = 0
KBR1 250228Z 16009KT 07/M07 A3009 RMK A01 T00721066  RH  037%=      5-min Rain = 0
KBR1 250229Z 17009KT 07/M07 A3009 RMK A01 T00721066  RH  037%=      5-min Rain = 0
KBR1 250230Z 17008KT 07/M07 A3009 RMK A01 T00731066  RH  036%=      5-min Rain = 0
KBR1 250231Z 17008KT 07/M07 A3009 RMK A01 T00741066  RH  036%=      5-min Rain = 0
KBR1 250232Z 17009KT 07/M07 A3009 RMK A01 T00721067  RH  037%=      5-min Rain = 0
KBR1 250233Z 17008KT 07/M07 A3009 RMK A01 T00711067  RH  037%=      5-min Rain = 0
KBR1 250234Z 17009KT 07/M07 A3009 RMK A01 T00711067  RH  037%=      5-min Rain = 0
KBR1 250235Z 17008KT 07/M07 A3009 RMK A01 T00711067  RH  037%=      5-min Rain = 0
KBR1 250236Z 17007KT 07/M07 A3009 RMK A01 T00701067  RH  037%=      5-min Rain = 0
KBR1 250237Z 17007KT 07/M07 A3009 RMK A01 T00691067  RH  037%=      5-min Rain = 0
KBR1 250238Z 17008KT 07/M07 A3009 RMK A01 T00681067  RH  037%=      5-min Rain = 0
KBR1 250239Z 17008KT 07/M07 A3009 RMK A01 T00681067  RH  038%=      5-min Rain = 0
KBR1 250240Z 17008KT 07/M07 A3009 RMK A01 T00681067  RH  038%=      5-min Rain = 0
KBR1 250241Z 17006KT 07/M07 A3009 RMK A01 T00681067  RH  038%=      5-min Rain = 0
KBR1 250242Z 18006KT 07/M07 A3009 RMK A01 T00681067  RH  037%=      5-min Rain = 0
KBR1 250243Z 17005KT 07/M07 A301 RMK A01 T00671068  RH  038%=      5-min Rain = 0
KBR1 250244Z 17007KT 07/M07 A301 RMK A01 T00651068  RH  038%=      5-min Rain = 0
KBR1 250245Z 17007KT 07/M07 A301 RMK A01 T00651068  RH  038%=      5-min Rain = 0
KBR1 250246Z 18007KT 07/M07 A301 RMK A01 T00651068  RH  038%=      5-min Rain = 0
KBR1 250247Z 18008KT 07/M07 A301 RMK A01 T00651068  RH  038%=      5-min Rain = 0
KBR1 250248Z 17007KT 07/M07 A301 RMK A01 T00651068  RH  038%=      5-min Rain = 0
KBR1 250249Z 17006KT 07/M07 A301 RMK A01 T00651068  RH  038%=      5-min Rain = 0
KBR1 250250Z 17007KT 06/M07 A301 RMK A01 T00641068  RH  038%=      5-min Rain = 0
KBR1 250251Z 18007KT 06/M07 A301 RMK A01 T00641069  RH  038%=      5-min Rain = 0
KBR1 250252Z 17006KT 06/M07 A301 RMK A01 T00641069  RH  038%=      5-min Rain = 0
KBR1 250253Z 17007KT 06/M07 A301 RMK A01 T00641069  RH  038%=      5-min Rain = 0
KBR1 250254Z 18006KT 07/M07 A301 RMK A01 T00651070  RH  038%=      5-min Rain = 0
KBR1 250255Z 18006KT 06/M07 A301 RMK A01 T00641070  RH  038%=      5-min Rain = 0
KBR1 250256Z 18006KT 06/M07 A301 RMK A01 T00631070  RH  038%=      5-min Rain = 0
KBR1 250257Z 18007KT 06/M07 A301 RMK A01 T00631071  RH  038%=      5-min Rain = 0
KBR1 250258Z 18007KT 06/M07 A301 RMK A01 T00631071  RH  038%=      5-min Rain = 0
KBR1 250259Z 18006KT 06/M07 A301 RMK A01 T00631071  RH  038%=      5-min Rain = 0
KBR1 250300Z 18007KT 06/M07 A301 RMK A01 T00621072  RH  038%=      5-min Rain = 0
KBR1 250301Z 18007KT 06/M07 A301 RMK A01 T00621071  RH  038%=      5-min Rain = 0
KBR1 250302Z 18007KT 06/M07 A301 RMK A01 T00621072  RH  038%=      5-min Rain = 0
KBR1 250303Z 18007KT 06/M07 A301 RMK A01 T00621072  RH  038%=      5-min Rain = 0
KBR1 250304Z 18007KT 06/M07 A301 RMK A01 T00621072  RH  037%=      5-min Rain = 0
KBR1 250305Z 18008KT 06/M07 A301 RMK A01 T00621072  RH  038%=      5-min Rain = 0
KBR1 250306Z 18009KT 06/M07 A301 RMK A01 T00621073  RH  037%=      5-min Rain = 0
KBR1 250307Z 18008KT 06/M07 A3011 RMK A01 T00631073  RH  037%=      5-min Rain = 0
KBR1 250308Z 18008KT 06/M07 A3011 RMK A01 T00621074  RH  037%=      5-min Rain = 0
KBR1 250309Z 18007KT 06/M07 A3011 RMK A01 T00611074  RH  037%=      5-min Rain = 0
KBR1 250310Z 18008KT 06/M07 A3011 RMK A01 T00601074  RH  037%=      5-min Rain = 0
KBR1 250311Z 18008KT 06/M08 A3011 RMK A01 T00611075  RH  037%=      5-min Rain = 0
KBR1 250312Z 18008KT 06/M08 A3011 RMK A01 T00621075  RH  037%=      5-min Rain = 0
KBR1 250313Z 18008KT 06/M08 A3011 RMK A01 T00621075  RH  037%=      5-min Rain = 0
KBR1 250314Z 18008KT 06/M08 A3011 RMK A01 T00621075  RH  037%=      5-min Rain = 0
KBR1 250315Z 18008KT 06/M08 A3011 RMK A01 T00611076  RH  037%=      5-min Rain = 0
KBR1 250316Z 18007KT 06/M08 A3011 RMK A01 T00621076  RH  037%=      5-min Rain = 0
KBR1 250317Z 18008KT 06/M08 A3011 RMK A01 T00601077  RH  037%=      5-min Rain = 0
KBR1 250318Z 18008KT 06/M08 A3011 RMK A01 T00591077  RH  037%=      5-min Rain = 0
KBR1 250319Z 18009KT 06/M08 A3011 RMK A01 T00601077  RH  037%=      5-min Rain = 0
KBR1 250320Z 18009KT 06/M08 A3011 RMK A01 T00601077  RH  037%=      5-min Rain = 0
KBR1 250321Z 18009KT 06/M08 A3011 RMK A01 T00621077  RH  036%=      5-min Rain = 0
KBR1 250322Z 17009KT 06/M08 A3011 RMK A01 T00641077  RH  036%=      5-min Rain = 0
KBR1 250323Z 17007KT 06/M08 A3011 RMK A01 T00641078  RH  035%=      5-min Rain = 0
KBR1 250324Z 17008KT 06/M08 A3011 RMK A01 T00631078  RH  036%=      5-min Rain = 0
KBR1 250325Z 17007KT 06/M08 A3011 RMK A01 T00611079  RH  036%=      5-min Rain = 0
KBR1 250326Z 17009KT 06/M08 A3011 RMK A01 T00591080  RH  036%=      5-min Rain = 0
KBR1 250327Z 17008KT 06/M08 A3011 RMK A01 T00601079  RH  036%=      5-min Rain = 0
KBR1 250328Z 17010KT 06/M08 A3011 RMK A01 T00621079  RH  036%=      5-min Rain = 0
KBR1 250329Z 17009KT 06/M08 A3011 RMK A01 T00631079  RH  035%=      5-min Rain = 0
KBR1 250330Z 17008KT 06/M08 A3011 RMK A01 T00641079  RH  035%=      5-min Rain = 0
KBR1 250331Z 17008KT 06/M08 A3011 RMK A01 T00621080  RH  035%=      5-min Rain = 0
KBR1 250332Z 17007KT 06/M08 A3011 RMK A01 T00601080  RH  036%=      5-min Rain = 0
KBR1 250333Z 16008KT 06/M08 A3011 RMK A01 T00601080  RH  036%=      5-min Rain = 0
KBR1 250334Z 17008KT 06/M08 A3011 RMK A01 T00601079  RH  036%=      5-min Rain = 0
KBR1 250335Z 17010KT 06/M08 A3011 RMK A01 T00601080  RH  036%=      5-min Rain = 0
KBR1 250336Z 16008KT 06/M08 A3011 RMK A01 T00621079  RH  035%=      5-min Rain = 0
KBR1 250337Z 17008KT 06/M08 A3011 RMK A01 T00621080  RH  035%=      5-min Rain = 0
KBR1 250338Z 16008KT 06/M08 A3011 RMK A01 T00621080  RH  035%=      5-min Rain = 0
KBR1 250339Z 17009KT 06/M08 A3011 RMK A01 T00621080  RH  035%=      5-min Rain = 0
KBR1 250340Z 16007KT 06/M08 A3012 RMK A01 T00621080  RH  036%=      5-min Rain = 0
KBR1 250341Z 17007KT 06/M08 A3012 RMK A01 T00611080  RH  036%=      5-min Rain = 0
KBR1 250342Z 17007KT 06/M08 A3012 RMK A01 T00601080  RH  036%=      5-min Rain = 0
KBR1 250343Z 17007KT 06/M08 A3012 RMK A01 T00581080  RH  036%=      5-min Rain = 0
KBR1 250344Z 17007KT 06/M08 A3012 RMK A01 T00571080  RH  036%=      5-min Rain = 0
KBR1 250345Z 17007KT 06/M08 A3012 RMK A01 T00571080  RH  037%=      5-min Rain = 0
KBR1 250346Z 16006KT 06/M08 A3012 RMK A01 T00571080  RH  037%=      5-min Rain = 0
KBR1 250347Z 17006KT 06/M08 A3012 RMK A01 T00571080  RH  037%=      5-min Rain = 0
KBR1 250348Z 17005KT 06/M08 A3012 RMK A01 T00561081  RH  037%=      5-min Rain = 0
KBR1 250349Z 17005KT 05/M08 A3012 RMK A01 T00541081  RH  037%=      5-min Rain = 0
KBR1 250350Z 16006KT 05/M08 A3012 RMK A01 T00531081  RH  037%=      5-min Rain = 0
KBR1 250351Z 17005KT 05/M08 A3012 RMK A01 T00521082  RH  037%=      5-min Rain = 0
KBR1 250352Z 17005KT 05/M08 A3012 RMK A01 T00511082  RH  038%=      5-min Rain = 0
KBR1 250353Z 17006KT 05/M08 A3012 RMK A01 T00511082  RH  038%=      5-min Rain = 0
KBR1 250354Z 17005KT 05/M08 A3012 RMK A01 T00511082  RH  037%=      5-min Rain = 0
KBR1 250355Z 17005KT 05/M08 A3012 RMK A01 T00511082  RH  037%=      5-min Rain = 0
KBR1 250356Z 17005KT 05/M08 A3012 RMK A01 T00511082  RH  038%=      5-min Rain = 0
KBR1 250357Z 17005KT 05/M08 A3012 RMK A01 T00501082  RH  038%=      5-min Rain = 0
KBR1 250358Z 18004KT 05/M08 A3012 RMK A01 T00511082  RH  038%=      5-min Rain = 0
KBR1 250359Z 17004KT 05/M08 A3012 RMK A01 T00531082  RH  037%=      5-min Rain = 0
KBR1 250400Z 18004KT 05/M08 A3012 RMK A01 T00541082  RH  037%=      5-min Rain = 0
KBR1 250401Z 18004KT 06/M08 A3012 RMK A01 T00561082  RH  036%=      5-min Rain = 0
KBR1 250402Z 18004KT 06/M08 A3012 RMK A01 T00571082  RH  036%=      5-min Rain = 0
KBR1 250403Z 20003KT 06/M08 A3012 RMK A01 T00571083  RH  036%=      5-min Rain = 0
KBR1 250404Z 20005KT 06/M08 A3012 RMK A01 T00561083  RH  036%=      5-min Rain = 0
KBR1 250405Z 19007KT 05/M09 A3013 RMK A01 T00541085  RH  036%=      5-min Rain = 0
KBR1 250406Z 19006KT 06/M08 A3012 RMK A01 T00581082  RH  036%=      5-min Rain = 0
KBR1 250407Z 19006KT 06/M08 A3013 RMK A01 T00591083  RH  035%=      5-min Rain = 0
KBR1 250408Z 19007KT 06/M08 A3013 RMK A01 T00591083  RH  035%=      5-min Rain = 0
KBR1 250409Z 20007KT 06/M08 A3013 RMK A01 T00581083  RH  036%=      5-min Rain = 0
KBR1 250410Z 20006KT 06/M08 A3013 RMK A01 T00591081  RH  036%=      5-min Rain = 0
KBR1 250411Z 20005KT 06/M08 A3013 RMK A01 T00581082  RH  036%=      5-min Rain = 0
KBR1 250412Z 19005KT 06/M08 A3013 RMK A01 T00561083  RH  036%=      5-min Rain = 0
KBR1 250413Z 20005KT 06/M08 A3013 RMK A01 T00551084  RH  036%=      5-min Rain = 0
KBR1 250414Z 20006KT 05/M08 A3013 RMK A01 T00541084  RH  036%=      5-min Rain = 0
KBR1 250415Z 19006KT 05/M08 A3013 RMK A01 T00531084  RH  037%=      5-min Rain = 0
KBR1 250416Z 20006KT 05/M08 A3013 RMK A01 T00531083  RH  037%=      5-min Rain = 0
KBR1 250417Z 20006KT 05/M08 A3013 RMK A01 T00531083  RH  037%=      5-min Rain = 0
KBR1 250418Z 19007KT 05/M08 A3013 RMK A01 T00531083  RH  037%=      5-min Rain = 0
KBR1 250419Z 19007KT 05/M08 A3013 RMK A01 T00531083  RH  037%=      5-min Rain = 0
KBR1 250420Z 19008KT 05/M08 A3013 RMK A01 T00541083  RH  037%=      5-min Rain = 0
KBR1 250421Z 19007KT 06/M08 A3013 RMK A01 T00551082  RH  036%=      5-min Rain = 0
KBR1 250422Z 18009KT 06/M08 A3013 RMK A01 T00551082  RH  036%=      5-min Rain = 0
KBR1 250423Z 18008KT 06/M08 A3013 RMK A01 T00561083  RH  036%=      5-min Rain = 0
KBR1 250424Z 18008KT 06/M08 A3013 RMK A01 T00551083  RH  036%=      5-min Rain = 0
KBR1 250425Z 19008KT 05/M08 A3013 RMK A01 T00541083  RH  037%=      5-min Rain = 0
KBR1 250426Z 19008KT 05/M08 A3013 RMK A01 T00531083  RH  037%=      5-min Rain = 0
KBR1 250427Z 18008KT 05/M08 A3013 RMK A01 T00531083  RH  037%=      5-min Rain = 0
KBR1 250428Z 18008KT 05/M08 A3013 RMK A01 T00521083  RH  037%=      5-min Rain = 0
KBR1 250429Z 18008KT 05/M08 A3013 RMK A01 T00521083  RH  037%=      5-min Rain = 0
KBR1 250430Z 18008KT 05/M08 A3013 RMK A01 T00511083  RH  037%=      5-min Rain = 0
KBR1 250431Z 18008KT 05/M08 A3013 RMK A01 T00491083  RH  038%=      5-min Rain = 0
KBR1 250432Z 18008KT 05/M08 A3013 RMK A01 T00481082  RH  038%=      5-min Rain = 0
KBR1 250433Z 18008KT 05/M08 A3013 RMK A01 T00491082  RH  038%=      5-min Rain = 0
KBR1 250434Z 17007KT 05/M08 A3013 RMK A01 T00491082  RH  038%=      5-min Rain = 0
KBR1 250435Z 17008KT 05/M08 A3013 RMK A01 T00481083  RH  038%=      5-min Rain = 0
KBR1 250436Z 17008KT 05/M08 A3013 RMK A01 T00471083  RH  038%=      5-min Rain = 0
KBR1 250437Z 17008KT 05/M08 A3013 RMK A01 T00461083  RH  039%=      5-min Rain = 0
KBR1 250438Z 17008KT 05/M08 A3013 RMK A01 T00461083  RH  039%=      5-min Rain = 0
KBR1 250439Z 17008KT 05/M08 A3013 RMK A01 T00451083  RH  039%=      5-min Rain = 0
KBR1 250440Z 17009KT 04/M08 A3013 RMK A01 T00441083  RH  039%=      5-min Rain = 0
KBR1 250441Z 18009KT 04/M08 A3013 RMK A01 T00441083  RH  039%=      5-min Rain = 0
KBR1 250442Z 17008KT 04/M08 A3013 RMK A01 T00441083  RH  039%=      5-min Rain = 0
KBR1 250443Z 17008KT 04/M08 A3013 RMK A01 T00431083  RH  039%=      5-min Rain = 0
KBR1 250444Z 17007KT 04/M08 A3013 RMK A01 T00431083  RH  040%=      5-min Rain = 0
KBR1 250445Z 18010G15KT 04/M08 A3013 RMK A01 T00421082  RH  040%=      5-min Rain = 0
KBR1 250446Z 18011KT 05/M08 A3013 RMK A01 T00451080  RH  040%=      5-min Rain = 0
KBR1 250447Z 17011KT 05/M08 A3013 RMK A01 T00501079  RH  039%=      5-min Rain = 0
KBR1 250448Z 18012KT 05/M08 A3012 RMK A01 T00511080  RH  038%=      5-min Rain = 0
KBR1 250449Z 17013KT 05/M08 A3012 RMK A01 T00531081  RH  038%=      5-min Rain = 0
KBR1 250450Z 18012KT 06/M08 A3012 RMK A01 T00551081  RH  037%=      5-min Rain = 0
KBR1 250451Z 18012KT 06/M08 A3012 RMK A01 T00561081  RH  037%=      5-min Rain = 0
KBR1 250452Z 18012KT 06/M08 A3012 RMK A01 T00551082  RH  037%=      5-min Rain = 0
KBR1 250453Z 18011KT 05/M08 A3012 RMK A01 T00541081  RH  037%=      5-min Rain = 0
KBR1 250454Z 18011KT 05/M08 A3012 RMK A01 T00521082  RH  037%=      5-min Rain = 0
KBR1 250455Z 18010KT 05/M08 A3012 RMK A01 T00521081  RH  037%=      5-min Rain = 0
KBR1 250456Z 18011KT 05/M08 A3012 RMK A01 T00521081  RH  038%=      5-min Rain = 0
KBR1 250457Z 18010KT 05/M08 A3012 RMK A01 T00511081  RH  038%=      5-min Rain = 0
KBR1 250458Z 18011KT 05/M08 A3012 RMK A01 T00501081  RH  038%=      5-min Rain = 0
KBR1 250459Z 18010KT 05/M08 A3013 RMK A01 T00501081  RH  038%=      5-min Rain = 0
KBR1 250500Z 18010KT 05/M08 A3012 RMK A01 T00491081  RH  038%=      5-min Rain = 0
KBR1 250501Z 19010KT 05/M08 A3012 RMK A01 T00481081  RH  039%=      5-min Rain = 0
KBR1 250502Z 18012KT 05/M08 A3013 RMK A01 T00481081  RH  039%=      5-min Rain = 0
KBR1 250503Z 18012KT 05/M08 A3013 RMK A01 T00501080  RH  038%=      5-min Rain = 0
KBR1 250504Z 19011KT 05/M08 A3013 RMK A01 T00511081  RH  038%=      5-min Rain = 0
KBR1 250505Z 19011KT 05/M08 A3013 RMK A01 T00501082  RH  038%=      5-min Rain = 0
KBR1 250506Z 19011KT 05/M08 A3013 RMK A01 T00491082  RH  038%=      5-min Rain = 0
KBR1 250507Z 19010KT 05/M08 A3013 RMK A01 T00491081  RH  038%=      5-min Rain = 0
KBR1 250508Z 19010KT 05/M08 A3012 RMK A01 T00481081  RH  039%=      5-min Rain = 0
KBR1 250509Z 19011KT 05/M08 A3012 RMK A01 T00481081  RH  039%=      5-min Rain = 0
KBR1 250510Z 19011KT 05/M08 A3012 RMK A01 T00481080  RH  039%=      5-min Rain = 0
KBR1 250511Z 19010KT 05/M08 A3012 RMK A01 T00471080  RH  039%=      5-min Rain = 0
KBR1 250512Z 19010KT 05/M08 A3012 RMK A01 T00461081  RH  039%=      5-min Rain = 0
KBR1 250513Z 19011KT 05/M08 A3012 RMK A01 T00461080  RH  039%=      5-min Rain = 0
KBR1 250514Z 19012KT 05/M08 A3012 RMK A01 T00451080  RH  040%=      5-min Rain = 0
KBR1 250515Z 19012KT 05/M08 A3012 RMK A01 T00451079  RH  040%=      5-min Rain = 0
KBR1 250516Z 19012KT 05/M08 A3012 RMK A01 T00451079  RH  040%=      5-min Rain = 0
KBR1 250517Z 19012KT 05/M08 A3012 RMK A01 T00461079  RH  040%=      5-min Rain = 0
KBR1 250518Z 19011KT 05/M08 A3012 RMK A01 T00471079  RH  040%=      5-min Rain = 0
KBR1 250519Z 19010KT 04/M08 A3012 RMK A01 T00441080  RH  040%=      5-min Rain = 0
KBR1 250520Z 19011KT 04/M08 A3012 RMK A01 T00431079  RH  041%=      5-min Rain = 0
KBR1 250521Z 19012KT 04/M08 A3012 RMK A01 T00421079  RH  041%=      5-min Rain = 0
KBR1 250522Z 19011KT 04/M08 A3012 RMK A01 T00421078  RH  041%=      5-min Rain = 0
KBR1 250523Z 19013KT 04/M08 A3012 RMK A01 T00431078  RH  041%=      5-min Rain = 0
KBR1 250524Z 19012KT 05/M08 A3012 RMK A01 T00451078  RH  041%=      5-min Rain = 0
KBR1 250525Z 19012KT 05/M08 A3012 RMK A01 T00451078  RH  040%=      5-min Rain = 0
KBR1 250526Z 19015KT 05/M08 A3012 RMK A01 T00451078  RH  040%=      5-min Rain = 0
KBR1 250527Z 19012KT 05/M08 A3012 RMK A01 T00481078  RH  040%=      5-min Rain = 0
KBR1 250528Z 19012KT 05/M08 A3012 RMK A01 T00481078  RH  040%=      5-min Rain = 0
KBR1 250529Z 19012KT 05/M08 A3012 RMK A01 T00461079  RH  040%=      5-min Rain = 0
KBR1 250530Z 19013KT 05/M08 A3012 RMK A01 T00461078  RH  040%=      5-min Rain = 0
KBR1 250531Z 19012KT 05/M08 A3012 RMK A01 T00461078  RH  040%=      5-min Rain = 0
KBR1 250532Z 19012KT 05/M08 A3012 RMK A01 T00451078  RH  040%=      5-min Rain = 0
KBR1 250533Z 19014KT 05/M08 A3012 RMK A01 T00451078  RH  040%=      5-min Rain = 0
KBR1 250534Z 19014KT 05/M08 A3012 RMK A01 T00461078  RH  040%=      5-min Rain = 0
KBR1 250535Z 19012KT 05/M08 A3012 RMK A01 T00471078  RH  040%=      5-min Rain = 0
KBR1 250536Z 19013KT 05/M08 A3012 RMK A01 T00451078  RH  040%=      5-min Rain = 0
KBR1 250537Z 19012KT 05/M08 A3012 RMK A01 T00451078  RH  040%=      5-min Rain = 0
KBR1 250538Z 19012KT 05/M08 A3012 RMK A01 T00451078  RH  040%=      5-min Rain = 0
KBR1 250539Z 19013KT 04/M08 A3012 RMK A01 T00441078  RH  041%=      5-min Rain = 0
KBR1 250540Z 19011KT 05/M08 A3012 RMK A01 T00451077  RH  041%=      5-min Rain = 0
KBR1 250541Z 19012KT 04/M08 A3012 RMK A01 T00441078  RH  041%=      5-min Rain = 0
KBR1 250542Z 19011KT 04/M08 A3012 RMK A01 T00441078  RH  041%=      5-min Rain = 0
KBR1 250543Z 19012KT 04/M08 A3012 RMK A01 T00431078  RH  041%=      5-min Rain = 0
KBR1 250544Z 19011KT 04/M08 A3012 RMK A01 T00431078  RH  041%=      5-min Rain = 0
KBR1 250545Z 19011KT 04/M08 A3012 RMK A01 T00421078  RH  041%=      5-min Rain = 0
KBR1 250546Z 19011KT 04/M08 A3012 RMK A01 T00421078  RH  041%=      5-min Rain = 0
KBR1 250547Z 19010KT 04/M08 A3012 RMK A01 T00421078  RH  041%=      5-min Rain = 0
KBR1 250548Z 19011KT 04/M08 A3012 RMK A01 T00411078  RH  042%=      5-min Rain = 0
KBR1 250549Z 19011KT 04/M08 A3012 RMK A01 T00411078  RH  042%=      5-min Rain = 0
KBR1 250550Z 19011KT 04/M08 A3012 RMK A01 T00411078  RH  041%=      5-min Rain = 0
KBR1 250551Z 19012KT 04/M08 A3012 RMK A01 T00411078  RH  041%=      5-min Rain = 0
KBR1 250552Z 19011KT 04/M08 A3012 RMK A01 T00421078  RH  041%=      5-min Rain = 0
KBR1 250553Z 19012KT 04/M08 A3012 RMK A01 T00411078  RH  042%=      5-min Rain = 0
KBR1 250554Z 19012KT 04/M08 A3012 RMK A01 T00411078  RH  042%=      5-min Rain = 0
KBR1 250555Z 19015KT 04/M08 A3012 RMK A01 T00411078  RH  042%=      5-min Rain = 0
KBR1 250556Z 19012KT 04/M08 A3012 RMK A01 T00441077  RH  041%=      5-min Rain = 0
KBR1 250557Z 19013KT 04/M08 A3012 RMK A01 T00431077  RH  041%=      5-min Rain = 0
KBR1 250558Z 19013KT 04/M08 A3012 RMK A01 T00431078  RH  041%=      5-min Rain = 0
KBR1 250559Z 19013KT 04/M08 A3012 RMK A01 T00441078  RH  041%=      5-min Rain = 0

Page generated in 0.1251 seconds.